Wetterdaten: Sonntag, 08.03.2020
Datum Zeit Temp. Aussen Temp. o. S. Temp +5cm Feuchte Auss Luftdruck Regen Sonnenschein Regendauer Solar Windben Empfang
08.03.2020 00:00 8,3 C 7,8 C 7,2 C 78 % 1018,6 hPa 0,0 l/m 0 min 0 min 0 W/m 25,7 km/h (4 Bft) 97,87 %
08.03.2020 00:02 8,3 C 7,2 C 7,2 C 78 % 1018,5 hPa 0,0 l/m 0 min 0 min 0 W/m 16,1 km/h (3 Bft) 100,00 %
08.03.2020 00:04 8,3 C 7,2 C 7,2 C 79 % 1018,5 hPa 0,0 l/m 0 min 0 min 0 W/m 22,5 km/h (4 Bft) 95,35 %
08.03.2020 00:08 8,3 C 7,2 C 7,2 C 79 % 1018,5 hPa 0,0 l/m 0 min 0 min 0 W/m 25,7 km/h (4 Bft) 96,81 %
08.03.2020 00:10 8,3 C 7,2 C 6,7 C 79 % 1018,5 hPa 0,0 l/m 0 min 0 min 0 W/m 19,3 km/h (3 Bft) 96,23 %
08.03.2020 00:12 8,3 C 7,2 C 6,7 C 79 % 1018,5 hPa 0,0 l/m 0 min 0 min 0 W/m 25,7 km/h (4 Bft) 100,00 %
08.03.2020 00:14 8,3 C 7,2 C 6,7 C 79 % 1018,4 hPa 0,0 l/m 0 min 0 min 0 W/m 29,0 km/h (5 Bft) 97,83 %
08.03.2020 00:16 8,2 C 7,2 C 6,7 C 79 % 1018,5 hPa 0,0 l/m 0 min 0 min 0 W/m 25,7 km/h (4 Bft) 97,87 %
08.03.2020 00:18 8,2 C 7,2 C 6,7 C 79 % 1018,4 hPa 0,0 l/m 0 min 0 min 0 W/m 19,3 km/h (3 Bft) 98,00 %
08.03.2020 00:20 8,2 C 7,2 C 6,7 C 80 % 1018,4 hPa 0,0 l/m 0 min 0 min 0 W/m 16,1 km/h (3 Bft) 97,87 %
08.03.2020 00:22 8,2 C 7,2 C 6,7 C 80 % 1018,4 hPa 0,0 l/m 0 min 0 min 0 W/m 19,3 km/h (3 Bft) 95,65 %
08.03.2020 00:24 8,2 C 7,2 C 6,7 C 80 % 1018,3 hPa 0,0 l/m 0 min 0 min 0 W/m 19,3 km/h (3 Bft) 100,00 %
08.03.2020 00:26 8,2 C 7,2 C 6,7 C 80 % 1018,3 hPa 0,0 l/m 0 min 0 min 0 W/m 22,5 km/h (4 Bft) 98,08 %
08.03.2020 00:28 8,2 C 7,2 C 6,7 C 80 % 1018,3 hPa 0,0 l/m 0 min 0 min 0 W/m 16,1 km/h (3 Bft) 98,00 %
08.03.2020 00:30 8,2 C 7,2 C 6,7 C 80 % 1018,3 hPa 0,0 l/m 0 min 0 min 0 W/m 12,9 km/h (3 Bft) 100,00 %
08.03.2020 00:32 8,2 C 7,2 C 6,7 C 80 % 1018,2 hPa 0,0 l/m 0 min 0 min 0 W/m 19,3 km/h (3 Bft) 100,00 %
08.03.2020 00:34 8,2 C 7,2 C 6,7 C 80 % 1018,3 hPa 0,0 l/m 0 min 0 min 0 W/m 19,3 km/h (3 Bft) 97,83 %
08.03.2020 00:36 8,2 C 7,2 C 6,7 C 81 % 1018,2 hPa 0,0 l/m 0 min 0 min 0 W/m 19,3 km/h (3 Bft) 100,00 %
08.03.2020 00:38 8,2 C 7,2 C 6,7 C 81 % 1018,2 hPa 0,0 l/m 0 min 0 min 0 W/m 22,5 km/h (4 Bft) 100,00 %
08.03.2020 00:40 8,2 C 7,2 C 6,7 C 81 % 1018,1 hPa 0,0 l/m 0 min 0 min 0 W/m 16,1 km/h (3 Bft) 100,00 %
08.03.2020 00:42 8,2 C 7,2 C 6,7 C 81 % 1018,1 hPa 0,0 l/m 0 min 0 min 0 W/m 12,9 km/h (3 Bft) 97,87 %
08.03.2020 00:44 8,2 C 7,2 C 6,7 C 81 % 1018,1 hPa 0,0 l/m 0 min 0 min 0 W/m 19,3 km/h (3 Bft) 100,00 %
08.03.2020 00:46 8,2 C 7,2 C 6,7 C 81 % 1018,0 hPa 0,0 l/m 0 min 0 min 0 W/m 19,3 km/h (3 Bft) 100,00 %
08.03.2020 00:48 8,2 C 7,2 C 6,7 C 81 % 1018,0 hPa 0,0 l/m 0 min 0 min 0 W/m 22,5 km/h (4 Bft) 97,87 %
08.03.2020 00:50 8,2 C 7,2 C 6,7 C 81 % 1018,1 hPa 0,0 l/m 0 min 0 min 0 W/m 16,1 km/h (3 Bft) 97,83 %
08.03.2020 00:52 8,2 C 7,2 C 6,7 C 81 % 1018,1 hPa 0,0 l/m 0 min 0 min 0 W/m 22,5 km/h (4 Bft) 97,87 %
08.03.2020 00:54 8,2 C 7,2 C 6,7 C 81 % 1018,0 hPa 0,0 l/m 0 min 0 min 0 W/m 22,5 km/h (4 Bft) 97,87 %
08.03.2020 00:56 8,2 C 7,2 C 6,7 C 81 % 1018,0 hPa 0,0 l/m 0 min 0 min 0 W/m 16,1 km/h (3 Bft) 97,87 %
08.03.2020 00:58 8,2 C 7,2 C 6,7 C 82 % 1018,0 hPa 0,0 l/m 0 min 0 min 0 W/m 19,3 km/h (3 Bft) 97,87 %
08.03.2020 01:00 8,1 C 7,2 C 6,7 C 82 % 1018,0 hPa 0,0 l/m 0 min 0 min 0 W/m 19,3 km/h (3 Bft) 97,96 %
08.03.2020 01:02 8,2 C 7,2 C 6,7 C 82 % 1017,9 hPa 0,0 l/m 0 min 0 min 0 W/m 16,1 km/h (3 Bft) 97,87 %
08.03.2020 01:04 8,1 C 7,2 C 6,7 C 82 % 1017,9 hPa 0,0 l/m 0 min 0 min 0 W/m 0,0 km/h (0 Bft) 97,87 %
08.03.2020 01:06 8,1 C 7,2 C 6,7 C 82 % 1017,9 hPa 0,0 l/m 0 min 0 min 0 W/m 22,5 km/h (4 Bft) 95,74 %
08.03.2020 01:08 8,1 C 7,2 C 6,7 C 82 % 1017,9 hPa 0,0 l/m 0 min 0 min 0 W/m 19,3 km/h (3 Bft) 96,00 %
08.03.2020 01:10 8,2 C 7,2 C 7,2 C 82 % 1017,9 hPa 0,0 l/m 0 min 0 min 0 W/m 25,7 km/h (4 Bft) 97,83 %
08.03.2020 01:12 8,2 C 7,2 C 7,2 C 82 % 1017,9 hPa 0,0 l/m 0 min 0 min 0 W/m 29,0 km/h (5 Bft) 97,14 %
08.03.2020 01:14 8,2 C 7,2 C 6,7 C 82 % 1017,9 hPa 0,0 l/m 0 min 0 min 0 W/m 12,9 km/h (3 Bft) 91,49 %
08.03.2020 01:16 8,2 C 7,2 C 6,7 C 82 % 1018,0 hPa 0,0 l/m 0 min 0 min 0 W/m 19,3 km/h (3 Bft) 94,34 %
08.03.2020 01:18 8,2 C 7,2 C 6,7 C 82 % 1017,9 hPa 0,0 l/m 0 min 0 min 0 W/m 19,3 km/h (3 Bft) 97,87 %
08.03.2020 01:20 8,2 C 7,2 C 6,7 C 82 % 1017,9 hPa 0,0 l/m 0 min 0 min 0 W/m 25,7 km/h (4 Bft) 97,87 %
08.03.2020 01:22 8,2 C 7,2 C 6,7 C 82 % 1017,9 hPa 0,0 l/m 0 min 0 min 0 W/m 12,9 km/h (3 Bft) 95,74 %
08.03.2020 01:24 8,2 C 7,2 C 6,7 C 82 % 1017,9 hPa 0,0 l/m 0 min 0 min 0 W/m 22,5 km/h (4 Bft) 95,65 %
08.03.2020 01:26 8,2 C 7,8 C 6,7 C 82 % 1017,9 hPa 0,0 l/m 0 min 0 min 0 W/m 32,2 km/h (5 Bft) 91,49 %
08.03.2020 01:28 8,2 C 7,8 C 7,2 C 82 % 1017,9 hPa 0,0 l/m 0 min 0 min 0 W/m 25,7 km/h (4 Bft) 97,87 %
08.03.2020 01:30 8,2 C 7,8 C 7,2 C 82 % 1017,8 hPa 0,0 l/m 0 min 0 min 0 W/m 25,7 km/h (4 Bft) 96,00 %
08.03.2020 01:32 8,2 C 7,8 C 7,2 C 82 % 1017,8 hPa 0,0 l/m 0 min 0 min 0 W/m 29,0 km/h (5 Bft) 95,74 %
08.03.2020 01:34 8,2 C 7,8 C 7,2 C 82 % 1017,9 hPa 0,0 l/m 0 min 0 min 0 W/m 22,5 km/h (4 Bft) 95,92 %
08.03.2020 01:36 8,2 C 7,8 C 7,2 C 82 % 1017,8 hPa 0,0 l/m 0 min 0 min 0 W/m 22,5 km/h (4 Bft) 95,74 %
08.03.2020 01:38 8,2 C 7,8 C 7,2 C 82 % 1017,8 hPa 0,0 l/m 0 min 0 min 0 W/m 29,0 km/h (5 Bft) 97,87 %
08.03.2020 01:40 8,2 C 7,8 C 7,2 C 82 % 1017,8 hPa 0,0 l/m 0 min 0 min 0 W/m 29,0 km/h (5 Bft) 95,74 %
08.03.2020 01:42 8,2 C 7,8 C 7,2 C 82 % 1017,8 hPa 0,0 l/m 0 min 0 min 0 W/m 32,2 km/h (5 Bft) 95,74 %
08.03.2020 01:44 8,3 C 7,8 C 7,2 C 82 % 1017,7 hPa 0,0 l/m 0 min 0 min 0 W/m 22,5 km/h (4 Bft) 94,29 %
08.03.2020 01:46 8,3 C 7,8 C 7,2 C 82 % 1017,7 hPa 0,0 l/m 0 min 0 min 0 W/m 19,3 km/h (3 Bft) 96,55 %
08.03.2020 01:48 8,3 C 7,8 C 7,2 C 82 % 1017,7 hPa 0,0 l/m 0 min 0 min 0 W/m 12,9 km/h (3 Bft) 95,74 %
08.03.2020 01:50 8,3 C 7,8 C 7,2 C 82 % 1017,6 hPa 0,0 l/m 0 min 0 min 0 W/m 19,3 km/h (3 Bft) 95,74 %
08.03.2020 01:52 8,3 C 7,8 C 7,2 C 82 % 1017,6 hPa 0,0 l/m 0 min 0 min 0 W/m 29,0 km/h (5 Bft) 95,74 %
08.03.2020 01:54 8,3 C 7,8 C 7,2 C 82 % 1017,5 hPa 0,0 l/m 0 min 0 min 0 W/m 19,3 km/h (3 Bft) 93,62 %
08.03.2020 01:56 8,3 C 7,8 C 7,2 C 82 % 1017,5 hPa 0,0 l/m 0 min 0 min 0 W/m 19,3 km/h (3 Bft) 97,83 %
08.03.2020 01:58 8,3 C 7,8 C 7,2 C 82 % 1017,5 hPa 0,0 l/m 0 min 0 min 0 W/m 22,5 km/h (4 Bft) 95,74 %
08.03.2020 02:00 8,3 C 7,8 C 7,2 C 82 % 1017,4 hPa 0,0 l/m 0 min 0 min 0 W/m 19,3 km/h (3 Bft) 97,87 %
08.03.2020 02:02 8,3 C 7,2 C 7,2 C 82 % 1017,4 hPa 0,0 l/m 0 min 0 min 0 W/m 19,3 km/h (3 Bft) 91,49 %
08.03.2020 02:04 8,3 C 7,2 C 6,7 C 82 % 1017,4 hPa 0,0 l/m 0 min 0 min 0 W/m 19,3 km/h (3 Bft) 95,74 %
08.03.2020 02:06 8,3 C 7,2 C 7,2 C 82 % 1017,4 hPa 0,0 l/m 0 min 0 min 0 W/m 19,3 km/h (3 Bft) 97,87 %
08.03.2020 02:08 8,3 C 7,2 C 6,7 C 82 % 1017,4 hPa 0,0 l/m 0 min 0 min 0 W/m 16,1 km/h (3 Bft) 95,65 %
08.03.2020 02:10 8,3 C 7,2 C 6,7 C 82 % 1017,5 hPa 0,0 l/m 0 min 0 min 0 W/m 25,7 km/h (4 Bft) 100,00 %
08.03.2020 02:12 8,2 C 7,2 C 6,7 C 82 % 1017,4 hPa 0,0 l/m 0 min 0 min 0 W/m 16,1 km/h (3 Bft) 97,14 %
08.03.2020 02:14 8,2 C 7,2 C 6,7 C 82 % 1017,4 hPa 0,0 l/m 0 min 0 min 0 W/m 16,1 km/h (3 Bft) 95,74 %
08.03.2020 02:16 8,2 C 7,2 C 6,7 C 82 % 1017,4 hPa 0,0 l/m 0 min 0 min 0 W/m 22,5 km/h (4 Bft) 95,74 %
08.03.2020 02:18 8,2 C 7,2 C 6,7 C 82 % 1017,4 hPa 0,0 l/m 0 min 0 min 0 W/m 22,5 km/h (4 Bft) 97,87 %
08.03.2020 02:20 8,2 C 7,2 C 6,7 C 82 % 1017,3 hPa 0,0 l/m 0 min 0 min 0 W/m 22,5 km/h (4 Bft) 97,87 %
08.03.2020 02:22 8,2 C 7,2 C 6,7 C 82 % 1017,3 hPa 0,0 l/m 0 min 0 min 0 W/m 19,3 km/h (3 Bft) 97,83 %
08.03.2020 02:24 8,2 C 7,2 C 6,7 C 82 % 1017,2 hPa 0,0 l/m 0 min 0 min 0 W/m 16,1 km/h (3 Bft) 97,87 %
08.03.2020 02:26 8,2 C 7,2 C 6,7 C 82 % 1017,2 hPa 0,0 l/m 0 min 0 min 0 W/m 19,3 km/h (3 Bft) 96,30 %
08.03.2020 02:28 8,2 C 7,2 C 6,7 C 82 % 1017,1 hPa 0,0 l/m 0 min 0 min 0 W/m 16,1 km/h (3 Bft) 95,74 %
08.03.2020 02:30 8,2 C 7,2 C 6,7 C 82 % 1017,1 hPa 0,0 l/m 0 min 0 min 0 W/m 19,3 km/h (3 Bft) 97,87 %
08.03.2020 02:32 8,1 C 7,2 C 6,7 C 82 % 1017,1 hPa 0,0 l/m 0 min 0 min 0 W/m 22,5 km/h (4 Bft) 97,87 %
08.03.2020 02:34 8,1 C 7,2 C 6,7 C 82 % 1017,1 hPa 0,0 l/m 0 min 0 min 0 W/m 16,1 km/h (3 Bft) 95,65 %
08.03.2020 02:36 8,1 C 7,2 C 6,7 C 82 % 1017,1 hPa 0,0 l/m 0 min 0 min 0 W/m 19,3 km/h (3 Bft) 98,00 %
08.03.2020 02:38 8,1 C 7,2 C 6,7 C 82 % 1017,0 hPa 0,0 l/m 0 min 0 min 0 W/m 12,9 km/h (3 Bft) 95,92 %
08.03.2020 02:40 8,1 C 7,2 C 6,7 C 82 % 1017,0 hPa 0,0 l/m 0 min 0 min 0 W/m 19,3 km/h (3 Bft) 95,74 %
08.03.2020 02:42 8,1 C 7,2 C 6,7 C 82 % 1017,0 hPa 0,0 l/m 0 min 0 min 0 W/m 12,9 km/h (3 Bft) 95,65 %
08.03.2020 02:44 8,1 C 7,2 C 6,7 C 82 % 1016,9 hPa 0,0 l/m 0 min 0 min 0 W/m 16,1 km/h (3 Bft) 97,87 %
08.03.2020 02:46 8,1 C 7,2 C 6,7 C 82 % 1016,9 hPa 0,0 l/m 0 min 0 min 0 W/m 25,7 km/h (4 Bft) 97,14 %
08.03.2020 02:48 8,1 C 7,2 C 6,7 C 82 % 1016,8 hPa 0,0 l/m 0 min 0 min 0 W/m 16,1 km/h (3 Bft) 97,87 %
08.03.2020 02:50 8,0 C 7,2 C 6,7 C 82 % 1016,9 hPa 0,0 l/m 0 min 0 min 0 W/m 19,3 km/h (3 Bft) 97,87 %
08.03.2020 02:52 8,0 C 7,2 C 6,7 C 82 % 1016,8 hPa 0,0 l/m 0 min 0 min 0 W/m 16,1 km/h (3 Bft) 97,87 %
08.03.2020 02:54 7,9 C 6,7 C 6,1 C 82 % 1016,8 hPa 0,0 l/m 0 min 0 min 0 W/m 12,9 km/h (3 Bft) 97,87 %
08.03.2020 02:56 7,9 C 6,7 C 6,1 C 83 % 1016,8 hPa 0,0 l/m 0 min 0 min 0 W/m 12,9 km/h (3 Bft) 95,65 %
08.03.2020 02:58 7,9 C 6,7 C 6,1 C 83 % 1016,7 hPa 0,0 l/m 0 min 0 min 0 W/m 0,0 km/h (0 Bft) 97,87 %
08.03.2020 03:00 7,9 C 6,7 C 6,1 C 83 % 1016,7 hPa 0,0 l/m 0 min 0 min 0 W/m 16,1 km/h (3 Bft) 98,15 %
08.03.2020 03:02 7,8 C 6,7 C 6,1 C 83 % 1016,7 hPa 0,0 l/m 0 min 0 min 0 W/m 19,3 km/h (3 Bft) 100,00 %
08.03.2020 03:04 7,8 C 6,7 C 6,1 C 83 % 1016,7 hPa 0,0 l/m 0 min 0 min 0 W/m 0,0 km/h (0 Bft) 100,00 %
08.03.2020 03:06 7,8 C 6,7 C 6,1 C 83 % 1016,6 hPa 0,0 l/m 0 min 0 min 0 W/m 6,4 km/h (2 Bft) 100,00 %
08.03.2020 03:08 7,8 C 6,7 C 6,1 C 83 % 1016,7 hPa 0,0 l/m 0 min 0 min 0 W/m 9,7 km/h (2 Bft) 97,83 %
08.03.2020 03:10 7,8 C 6,7 C 6,1 C 83 % 1016,6 hPa 0,0 l/m 0 min 0 min 0 W/m 19,3 km/h (3 Bft) 100,00 %
08.03.2020 03:12 7,7 C 6,7 C 6,1 C 83 % 1016,6 hPa 0,0 l/m 0 min 0 min 0 W/m 16,1 km/h (3 Bft) 100,00 %
08.03.2020 03:14 7,7 C 6,7 C 6,1 C 83 % 1016,5 hPa 0,0 l/m 0 min 0 min 0 W/m 19,3 km/h (3 Bft) 100,00 %
08.03.2020 03:16 7,7 C 6,7 C 6,1 C 84 % 1016,5 hPa 0,0 l/m 0 min 0 min 0 W/m 16,1 km/h (3 Bft) 97,83 %
08.03.2020 03:18 7,6 C 6,7 C 6,1 C 84 % 1016,5 hPa 0,0 l/m 0 min 0 min 0 W/m 19,3 km/h (3 Bft) 97,87 %
08.03.2020 03:20 7,6 C 6,7 C 6,1 C 84 % 1016,5 hPa 0,0 l/m 0 min 0 min 0 W/m 22,5 km/h (4 Bft) 97,87 %
08.03.2020 03:22 7,6 C 6,7 C 6,1 C 84 % 1016,5 hPa 0,0 l/m 0 min 0 min 0 W/m 25,7 km/h (4 Bft) 100,00 %
08.03.2020 03:24 7,6 C 6,7 C 6,1 C 84 % 1016,4 hPa 0,0 l/m 0 min 0 min 0 W/m 25,7 km/h (4 Bft) 100,00 %
08.03.2020 03:26 7,5 C 6,7 C 6,1 C 84 % 1016,4 hPa 0,0 l/m 0 min 0 min 0 W/m 16,1 km/h (3 Bft) 98,15 %
08.03.2020 03:28 7,5 C 6,7 C 6,1 C 84 % 1016,3 hPa 0,0 l/m 0 min 0 min 0 W/m 19,3 km/h (3 Bft) 100,00 %
08.03.2020 03:30 7,5 C 6,7 C 6,1 C 84 % 1016,3 hPa 0,0 l/m 0 min 0 min 0 W/m 19,3 km/h (3 Bft) 100,00 %
08.03.2020 03:32 7,4 C 6,7 C 6,1 C 84 % 1016,3 hPa 0,0 l/m 0 min 0 min 0 W/m 16,1 km/h (3 Bft) 97,83 %
08.03.2020 03:34 7,4 C 6,7 C 5,6 C 84 % 1016,3 hPa 0,0 l/m 0 min 0 min 0 W/m 16,1 km/h (3 Bft) 97,87 %
08.03.2020 03:36 7,4 C 6,7 C 6,1 C 84 % 1016,3 hPa 0,0 l/m 0 min 0 min 0 W/m 19,3 km/h (3 Bft) 100,00 %
08.03.2020 03:38 7,4 C 6,7 C 6,1 C 84 % 1016,3 hPa 0,0 l/m 0 min 0 min 0 W/m 29,0 km/h (5 Bft) 100,00 %
08.03.2020 03:40 7,4 C 6,7 C 6,1 C 85 % 1016,2 hPa 0,0 l/m 0 min 0 min 0 W/m 25,7 km/h (4 Bft) 95,74 %
08.03.2020 03:42 7,4 C 6,7 C 6,1 C 85 % 1016,1 hPa 0,0 l/m 0 min 0 min 0 W/m 22,5 km/h (4 Bft) 100,00 %
08.03.2020 03:44 7,3 C 6,7 C 6,1 C 85 % 1016,2 hPa 0,0 l/m 0 min 0 min 0 W/m 22,5 km/h (4 Bft) 100,00 %
08.03.2020 03:46 7,3 C 6,7 C 6,1 C 85 % 1016,1 hPa 0,0 l/m 0 min 0 min 0 W/m 12,9 km/h (3 Bft) 100,00 %
08.03.2020 03:48 7,3 C 6,7 C 6,1 C 85 % 1016,1 hPa 0,0 l/m 0 min 0 min 0 W/m 25,7 km/h (4 Bft) 97,87 %
08.03.2020 03:50 7,3 C 6,7 C 6,1 C 85 % 1016,1 hPa 0,0 l/m 0 min 0 min 0 W/m 16,1 km/h (3 Bft) 97,87 %
08.03.2020 03:52 7,3 C 6,7 C 6,1 C 85 % 1016,1 hPa 0,0 l/m 0 min 0 min 0 W/m 22,5 km/h (4 Bft) 95,65 %
08.03.2020 03:54 7,3 C 6,7 C 6,1 C 85 % 1016,1 hPa 0,0 l/m 0 min 0 min 0 W/m 32,2 km/h (5 Bft) 97,22 %
08.03.2020 03:56 7,3 C 6,7 C 6,1 C 85 % 1016,1 hPa 0,0 l/m 0 min 0 min 0 W/m 16,1 km/h (3 Bft) 98,11 %
08.03.2020 03:58 7,3 C 6,7 C 6,1 C 85 % 1016,0 hPa 0,0 l/m 0 min 0 min 0 W/m 19,3 km/h (3 Bft) 97,87 %
08.03.2020 04:00 7,3 C 6,7 C 6,1 C 85 % 1016,0 hPa 0,0 l/m 0 min 0 min 0 W/m 19,3 km/h (3 Bft) 97,87 %
08.03.2020 04:02 7,3 C 6,7 C 6,1 C 85 % 1016,0 hPa 0,0 l/m 0 min 0 min 0 W/m 16,1 km/h (3 Bft) 100,00 %
08.03.2020 04:04 7,3 C 6,7 C 6,1 C 85 % 1016,0 hPa 0,0 l/m 0 min 0 min 0 W/m 19,3 km/h (3 Bft) 95,74 %
08.03.2020 04:06 7,3 C 6,7 C 6,1 C 85 % 1016,0 hPa 0,0 l/m 0 min 0 min 0 W/m 32,2 km/h (5 Bft) 96,43 %
08.03.2020 04:08 7,4 C 6,7 C 6,1 C 85 % 1016,1 hPa 0,0 l/m 0 min 0 min 0 W/m 16,1 km/h (3 Bft) 95,92 %
08.03.2020 04:10 7,4 C 6,7 C 6,1 C 85 % 1016,1 hPa 0,0 l/m 0 min 0 min 0 W/m 22,5 km/h (4 Bft) 95,92 %
08.03.2020 04:12 7,4 C 6,7 C 6,1 C 85 % 1016,1 hPa 0,0 l/m 0 min 0 min 0 W/m 22,5 km/h (4 Bft) 100,00 %
08.03.2020 04:14 7,4 C 6,7 C 6,1 C 85 % 1016,0 hPa 0,0 l/m 0 min 0 min 0 W/m 9,7 km/h (2 Bft) 97,87 %
08.03.2020 04:16 7,4 C 6,7 C 6,1 C 85 % 1016,0 hPa 0,0 l/m 0 min 0 min 0 W/m 25,7 km/h (4 Bft) 95,74 %
08.03.2020 04:18 7,4 C 6,7 C 6,1 C 85 % 1016,0 hPa 0,0 l/m 0 min 0 min 0 W/m 16,1 km/h (3 Bft) 97,83 %
08.03.2020 04:20 7,4 C 6,7 C 6,1 C 85 % 1016,0 hPa 0,0 l/m 0 min 0 min 0 W/m 16,1 km/h (3 Bft) 97,87 %
08.03.2020 04:22 7,5 C 6,7 C 6,1 C 85 % 1016,0 hPa 0,0 l/m 0 min 0 min 0 W/m 16,1 km/h (3 Bft) 98,15 %
08.03.2020 04:24 7,5 C 6,7 C 6,1 C 85 % 1015,9 hPa 0,0 l/m 0 min 0 min 0 W/m 19,3 km/h (3 Bft) 97,87 %
08.03.2020 04:26 7,5 C 6,7 C 6,1 C 85 % 1015,9 hPa 0,0 l/m 0 min 0 min 0 W/m 22,5 km/h (4 Bft) 100,00 %
08.03.2020 04:28 7,5 C 6,7 C 6,1 C 85 % 1015,9 hPa 0,0 l/m 0 min 0 min 0 W/m 22,5 km/h (4 Bft) 97,87 %
08.03.2020 04:30 7,6 C 6,7 C 6,1 C 85 % 1015,8 hPa 0,0 l/m 0 min 0 min 0 W/m 19,3 km/h (3 Bft) 97,83 %
08.03.2020 04:32 7,6 C 6,7 C 6,1 C 85 % 1015,8 hPa 0,0 l/m 0 min 0 min 0 W/m 16,1 km/h (3 Bft) 97,87 %
08.03.2020 04:34 7,6 C 6,7 C 6,1 C 85 % 1015,8 hPa 0,0 l/m 0 min 0 min 0 W/m 19,3 km/h (3 Bft) 95,92 %
08.03.2020 04:36 7,6 C 6,7 C 6,1 C 85 % 1015,7 hPa 0,0 l/m 0 min 0 min 0 W/m 22,5 km/h (4 Bft) 97,14 %
08.03.2020 04:38 7,6 C 6,7 C 6,1 C 85 % 1015,7 hPa 0,0 l/m 0 min 0 min 0 W/m 16,1 km/h (3 Bft) 95,74 %
08.03.2020 04:40 7,6 C 6,7 C 6,1 C 85 % 1015,7 hPa 0,0 l/m 0 min 0 min 0 W/m 19,3 km/h (3 Bft) 95,74 %
08.03.2020 04:42 7,6 C 6,7 C 6,1 C 85 % 1015,7 hPa 0,0 l/m 0 min 0 min 0 W/m 16,1 km/h (3 Bft) 97,83 %
08.03.2020 04:44 7,6 C 7,2 C 6,1 C 85 % 1015,8 hPa 0,0 l/m 0 min 0 min 0 W/m 19,3 km/h (3 Bft) 95,74 %
08.03.2020 04:46 7,6 C 7,2 C 6,7 C 85 % 1015,7 hPa 0,0 l/m 0 min 0 min 0 W/m 25,7 km/h (4 Bft) 97,87 %
08.03.2020 04:48 7,6 C 7,2 C 6,7 C 85 % 1015,7 hPa 0,0 l/m 0 min 0 min 0 W/m 25,7 km/h (4 Bft) 95,74 %
08.03.2020 04:50 7,6 C 7,2 C 6,7 C 86 % 1015,7 hPa 0,0 l/m 0 min 0 min 0 W/m 22,5 km/h (4 Bft) 98,15 %
08.03.2020 04:52 7,6 C 7,2 C 6,7 C 86 % 1015,5 hPa 0,0 l/m 0 min 0 min 0 W/m 19,3 km/h (3 Bft) 95,74 %
08.03.2020 04:54 7,6 C 7,2 C 6,7 C 86 % 1015,6 hPa 0,0 l/m 0 min 0 min 0 W/m 12,9 km/h (3 Bft) 97,83 %
08.03.2020 04:56 7,6 C 7,2 C 6,7 C 86 % 1015,6 hPa 0,0 l/m 0 min 0 min 0 W/m 19,3 km/h (3 Bft) 95,74 %
08.03.2020 04:58 7,7 C 6,7 C 6,1 C 86 % 1015,5 hPa 0,0 l/m 0 min 0 min 0 W/m 19,3 km/h (3 Bft) 95,74 %
08.03.2020 05:00 7,7 C 6,7 C 6,1 C 86 % 1015,5 hPa 0,0 l/m 0 min 0 min 0 W/m 16,1 km/h (3 Bft) 97,87 %
08.03.2020 05:02 7,7 C 6,7 C 6,1 C 86 % 1015,4 hPa 0,0 l/m 0 min 0 min 0 W/m 16,1 km/h (3 Bft) 91,49 %
08.03.2020 05:04 7,7 C 6,7 C 6,1 C 86 % 1015,4 hPa 0,0 l/m 0 min 0 min 0 W/m 19,3 km/h (3 Bft) 95,65 %
08.03.2020 05:06 7,6 C 6,7 C 6,1 C 86 % 1015,4 hPa 0,0 l/m 0 min 0 min 0 W/m 16,1 km/h (3 Bft) 97,87 %
08.03.2020 05:08 7,6 C 6,7 C 6,1 C 86 % 1015,4 hPa 0,0 l/m 0 min 0 min 0 W/m 22,5 km/h (4 Bft) 93,62 %
08.03.2020 05:10 7,6 C 6,7 C 6,1 C 86 % 1015,3 hPa 0,0 l/m 0 min 0 min 0 W/m 19,3 km/h (3 Bft) 95,74 %
08.03.2020 05:12 7,6 C 6,7 C 6,1 C 86 % 1015,4 hPa 0,0 l/m 0 min 0 min 0 W/m 16,1 km/h (3 Bft) 95,74 %
08.03.2020 05:14 7,6 C 6,7 C 6,1 C 86 % 1015,4 hPa 0,0 l/m 0 min 0 min 0 W/m 16,1 km/h (3 Bft) 93,62 %
08.03.2020 05:16 7,6 C 6,7 C 6,1 C 86 % 1015,3 hPa 0,0 l/m 0 min 0 min 0 W/m 16,1 km/h (3 Bft) 93,88 %
08.03.2020 05:18 7,6 C 6,7 C 6,1 C 86 % 1015,3 hPa 0,0 l/m 0 min 0 min 0 W/m 19,3 km/h (3 Bft) 93,62 %
08.03.2020 05:20 7,6 C 6,7 C 6,1 C 86 % 1015,2 hPa 0,0 l/m 0 min 0 min 0 W/m 16,1 km/h (3 Bft) 95,74 %
08.03.2020 05:22 7,6 C 6,7 C 5,6 C 86 % 1015,3 hPa 0,0 l/m 0 min 0 min 0 W/m 16,1 km/h (3 Bft) 95,92 %
08.03.2020 05:24 7,5 C 6,7 C 6,1 C 86 % 1015,3 hPa 0,0 l/m 0 min 0 min 0 W/m 19,3 km/h (3 Bft) 95,65 %
08.03.2020 05:26 7,5 C 6,7 C 5,6 C 86 % 1015,3 hPa 0,0 l/m 0 min 0 min 0 W/m 12,9 km/h (3 Bft) 95,74 %
08.03.2020 05:28 7,4 C 6,7 C 6,1 C 86 % 1015,3 hPa 0,0 l/m 0 min 0 min 0 W/m 22,5 km/h (4 Bft) 95,74 %
08.03.2020 05:30 7,4 C 6,7 C 6,1 C 86 % 1015,3 hPa 0,0 l/m 0 min 0 min 0 W/m 19,3 km/h (3 Bft) 95,74 %
08.03.2020 05:32 7,4 C 6,7 C 5,6 C 86 % 1015,3 hPa 0,0 l/m 0 min 0 min 0 W/m 19,3 km/h (3 Bft) 95,74 %
08.03.2020 05:34 7,4 C 6,7 C 5,6 C 86 % 1015,3 hPa 0,0 l/m 0 min 0 min 0 W/m 12,9 km/h (3 Bft) 95,74 %
08.03.2020 05:36 7,4 C 6,7 C 5,6 C 86 % 1015,3 hPa 0,0 l/m 0 min 0 min 0 W/m 22,5 km/h (4 Bft) 97,14 %
08.03.2020 05:38 7,3 C 6,7 C 5,6 C 87 % 1015,3 hPa 0,0 l/m 0 min 0 min 0 W/m 16,1 km/h (3 Bft) 93,62 %
08.03.2020 05:40 7,3 C 6,7 C 5,6 C 86 % 1015,3 hPa 0,0 l/m 0 min 0 min 0 W/m 16,1 km/h (3 Bft) 95,65 %
08.03.2020 05:42 7,3 C 6,7 C 5,6 C 86 % 1015,3 hPa 0,0 l/m 0 min 0 min 0 W/m 16,1 km/h (3 Bft) 97,87 %
08.03.2020 05:44 7,3 C 6,7 C 5,6 C 87 % 1015,2 hPa 0,0 l/m 0 min 0 min 0 W/m 19,3 km/h (3 Bft) 97,87 %
08.03.2020 05:46 7,3 C 6,7 C 6,1 C 87 % 1015,2 hPa 0,0 l/m 0 min 0 min 0 W/m 22,5 km/h (4 Bft) 94,44 %
08.03.2020 05:48 7,3 C 6,7 C 6,1 C 87 % 1015,3 hPa 0,0 l/m 0 min 0 min 0 W/m 19,3 km/h (3 Bft) 98,00 %
08.03.2020 05:50 7,3 C 6,7 C 6,1 C 87 % 1015,2 hPa 0,0 l/m 0 min 0 min 0 W/m 19,3 km/h (3 Bft) 97,92 %
08.03.2020 05:52 7,3 C 6,7 C 6,1 C 87 % 1015,2 hPa 0,0 l/m 0 min 0 min 0 W/m 12,9 km/h (3 Bft) 100,00 %
08.03.2020 05:54 7,3 C 6,7 C 5,6 C 87 % 1015,1 hPa 0,0 l/m 0 min 0 min 0 W/m 19,3 km/h (3 Bft) 97,87 %
08.03.2020 05:56 7,3 C 6,7 C 6,1 C 87 % 1015,1 hPa 0,0 l/m 0 min 0 min 0 W/m 16,1 km/h (3 Bft) 94,29 %
08.03.2020 05:58 7,3 C 6,7 C 5,6 C 87 % 1015,1 hPa 0,0 l/m 0 min 0 min 0 W/m 22,5 km/h (4 Bft) 98,15 %
08.03.2020 06:00 7,2 C 6,7 C 6,1 C 87 % 1015,1 hPa 0,0 l/m 0 min 0 min 0 W/m 19,3 km/h (3 Bft) 100,00 %
08.03.2020 06:02 7,3 C 6,7 C 6,1 C 87 % 1015,1 hPa 0,0 l/m 0 min 0 min 0 W/m 16,1 km/h (3 Bft) 100,00 %
08.03.2020 06:04 7,2 C 6,7 C 5,6 C 87 % 1015,0 hPa 0,0 l/m 0 min 0 min 0 W/m 16,1 km/h (3 Bft) 100,00 %
08.03.2020 06:08 7,2 C 6,7 C 5,6 C 87 % 1015,1 hPa 0,0 l/m 0 min 0 min 0 W/m 19,3 km/h (3 Bft) 98,94 %
08.03.2020 06:10 7,2 C 6,7 C 5,6 C 87 % 1015,1 hPa 0,0 l/m 0 min 0 min 0 W/m 16,1 km/h (3 Bft) 97,87 %
08.03.2020 06:12 7,2 C 6,1 C 5,6 C 87 % 1015,0 hPa 0,0 l/m 0 min 0 min 0 W/m 12,9 km/h (3 Bft) 97,87 %
08.03.2020 06:14 7,2 C 6,1 C 5,6 C 87 % 1015,0 hPa 0,0 l/m 0 min 0 min 0 W/m 12,9 km/h (3 Bft) 100,00 %
08.03.2020 06:16 7,2 C 6,1 C 5,6 C 87 % 1015,0 hPa 0,0 l/m 0 min 0 min 0 W/m 19,3 km/h (3 Bft) 100,00 %
08.03.2020 06:18 7,2 C 6,1 C 5,6 C 87 % 1015,0 hPa 0,0 l/m 0 min 0 min 0 W/m 16,1 km/h (3 Bft) 97,87 %
08.03.2020 06:20 7,2 C 6,1 C 5,6 C 87 % 1015,0 hPa 0,0 l/m 0 min 0 min 0 W/m 12,9 km/h (3 Bft) 95,74 %
08.03.2020 06:22 7,2 C 6,1 C 5,6 C 87 % 1014,9 hPa 0,0 l/m 0 min 0 min 0 W/m 16,1 km/h (3 Bft) 100,00 %
08.03.2020 06:24 7,2 C 6,1 C 5,6 C 87 % 1014,9 hPa 0,0 l/m 0 min 0 min 0 W/m 16,1 km/h (3 Bft) 100,00 %
08.03.2020 06:26 7,1 C 6,1 C 5,6 C 87 % 1014,9 hPa 0,0 l/m 0 min 0 min 0 W/m 12,9 km/h (3 Bft) 95,92 %
08.03.2020 06:28 7,1 C 6,1 C 5,6 C 87 % 1014,8 hPa 0,0 l/m 0 min 0 min 0 W/m 19,3 km/h (3 Bft) 97,87 %
08.03.2020 06:30 7,1 C 6,1 C 5,6 C 87 % 1014,8 hPa 0,0 l/m 0 min 0 min 0 W/m 16,1 km/h (3 Bft) 97,96 %
08.03.2020 06:32 7,1 C 6,1 C 5,6 C 87 % 1014,8 hPa 0,0 l/m 0 min 0 min 0 W/m 12,9 km/h (3 Bft) 97,87 %
08.03.2020 06:34 7,1 C 6,1 C 5,6 C 88 % 1014,9 hPa 0,0 l/m 0 min 0 min 0 W/m 22,5 km/h (4 Bft) 97,83 %
08.03.2020 06:36 7,1 C 6,1 C 5,6 C 88 % 1014,8 hPa 0,0 l/m 0 min 0 min 0 W/m 19,3 km/h (3 Bft) 97,87 %
08.03.2020 06:38 7,1 C 6,1 C 5,6 C 88 % 1014,8 hPa 0,0 l/m 0 min 0 min 0 W/m 22,5 km/h (4 Bft) 97,14 %
08.03.2020 06:40 7,1 C 6,1 C 5,6 C 88 % 1014,8 hPa 0,0 l/m 0 min 0 min 0 W/m 12,9 km/h (3 Bft) 96,30 %
08.03.2020 06:42 7,1 C 6,1 C 5,6 C 88 % 1014,8 hPa 0,0 l/m 0 min 0 min 0 W/m 22,5 km/h (4 Bft) 97,87 %
08.03.2020 06:44 7,1 C 6,1 C 5,6 C 88 % 1014,8 hPa 0,0 l/m 0 min 0 min 0 W/m 16,1 km/h (3 Bft) 97,87 %
08.03.2020 06:46 7,1 C 6,1 C 5,6 C 88 % 1014,8 hPa 0,0 l/m 0 min 0 min 0 W/m 16,1 km/h (3 Bft) 98,00 %
08.03.2020 06:48 7,1 C 6,1 C 5,6 C 88 % 1014,8 hPa 0,0 l/m 0 min 0 min 0 W/m 16,1 km/h (3 Bft) 97,92 %
08.03.2020 06:50 7,1 C 6,1 C 5,6 C 88 % 1014,7 hPa 0,0 l/m 0 min 0 min 0 W/m 16,1 km/h (3 Bft) 97,14 %
08.03.2020 06:52 7,1 C 6,1 C 5,6 C 88 % 1014,7 hPa 0,0 l/m 0 min 0 min 0 W/m 19,3 km/h (3 Bft) 97,87 %
08.03.2020 06:54 7,1 C 6,1 C 5,6 C 88 % 1014,7 hPa 0,0 l/m 0 min 0 min 0 W/m 22,5 km/h (4 Bft) 98,15 %
08.03.2020 06:56 7,1 C 6,1 C 5,6 C 88 % 1014,7 hPa 0,0 l/m 0 min 0 min 0 W/m 19,3 km/h (3 Bft) 96,00 %
08.03.2020 06:58 7,1 C 6,1 C 5,6 C 88 % 1014,7 hPa 0,0 l/m 0 min 0 min 0 W/m 16,1 km/h (3 Bft) 97,92 %
08.03.2020 07:00 7,1 C 6,1 C 5,6 C 88 % 1014,6 hPa 0,0 l/m 0 min 0 min 0 W/m 12,9 km/h (3 Bft) 97,87 %
08.03.2020 07:02 7,1 C 6,1 C 5,6 C 88 % 1014,6 hPa 0,0 l/m 0 min 0 min 0 W/m 19,3 km/h (3 Bft) 97,87 %
08.03.2020 07:04 7,1 C 6,1 C 5,6 C 88 % 1014,6 hPa 0,0 l/m 0 min 0 min 0 W/m 16,1 km/h (3 Bft) 97,14 %
08.03.2020 07:06 7,1 C 6,1 C 5,6 C 88 % 1014,6 hPa 0,0 l/m 0 min 0 min 0 W/m 19,3 km/h (3 Bft) 97,87 %
08.03.2020 07:08 7,1 C 6,1 C 5,6 C 88 % 1014,5 hPa 0,0 l/m 0 min 0 min 0 W/m 25,7 km/h (4 Bft) 97,87 %
08.03.2020 07:10 7,1 C 6,1 C 5,6 C 88 % 1014,5 hPa 0,0 l/m 0 min 0 min 0 W/m 19,3 km/h (3 Bft) 97,87 %
08.03.2020 07:12 7,0 C 6,1 C 5,6 C 88 % 1014,5 hPa 0,0 l/m 0 min 0 min 0 W/m 16,1 km/h (3 Bft) 100,00 %
08.03.2020 07:14 7,0 C 6,1 C 5,6 C 88 % 1014,5 hPa 0,0 l/m 0 min 0 min 0 W/m 19,3 km/h (3 Bft) 100,00 %
08.03.2020 07:16 7,0 C 6,1 C 5,6 C 88 % 1014,5 hPa 0,0 l/m 0 min 0 min 4 W/m 16,1 km/h (3 Bft) 100,00 %
08.03.2020 07:18 7,0 C 6,1 C 5,6 C 88 % 1014,5 hPa 0,0 l/m 0 min 0 min 5 W/m 19,3 km/h (3 Bft) 100,00 %
08.03.2020 07:20 7,0 C 6,1 C 5,6 C 88 % 1014,5 hPa 0,0 l/m 0 min 0 min 5 W/m 22,5 km/h (4 Bft) 100,00 %
08.03.2020 07:22 7,0 C 6,1 C 5,6 C 88 % 1014,5 hPa 0,0 l/m 0 min 0 min 8 W/m 22,5 km/h (4 Bft) 100,00 %
08.03.2020 07:24 6,9 C 6,1 C 5,6 C 88 % 1014,5 hPa 0,0 l/m 0 min 0 min 10 W/m 19,3 km/h (3 Bft) 100,00 %
08.03.2020 07:26 6,9 C 6,1 C 5,6 C 88 % 1014,5 hPa 0,0 l/m 0 min 0 min 11 W/m 16,1 km/h (3 Bft) 100,00 %
08.03.2020 07:28 6,9 C 6,1 C 5,6 C 88 % 1014,5 hPa 0,0 l/m 0 min 0 min 11 W/m 19,3 km/h (3 Bft) 97,87 %
08.03.2020 07:30 6,9 C 6,1 C 5,6 C 88 % 1014,5 hPa 0,0 l/m 0 min 0 min 12 W/m 16,1 km/h (3 Bft) 100,00 %
08.03.2020 07:32 6,9 C 6,1 C 5,6 C 88 % 1014,5 hPa 0,0 l/m 0 min 0 min 12 W/m 12,9 km/h (3 Bft) 100,00 %
08.03.2020 07:34 6,9 C 6,1 C 5,6 C 88 % 1014,5 hPa 0,0 l/m 0 min 0 min 14 W/m 16,1 km/h (3 Bft) 97,87 %
08.03.2020 07:36 6,9 C 6,1 C 5,6 C 88 % 1014,5 hPa 0,0 l/m 0 min 0 min 14 W/m 12,9 km/h (3 Bft) 100,00 %
08.03.2020 07:38 6,9 C 6,1 C 5,6 C 88 % 1014,6 hPa 0,0 l/m 0 min 0 min 16 W/m 19,3 km/h (3 Bft) 100,00 %
08.03.2020 07:40 6,9 C 6,1 C 5,6 C 88 % 1014,6 hPa 0,0 l/m 0 min 0 min 16 W/m 16,1 km/h (3 Bft) 100,00 %
08.03.2020 07:42 6,9 C 6,1 C 5,6 C 88 % 1014,6 hPa 0,0 l/m 0 min 0 min 16 W/m 22,5 km/h (4 Bft) 100,00 %
08.03.2020 07:44 6,9 C 6,1 C 5,6 C 88 % 1014,6 hPa 0,0 l/m 0 min 0 min 16 W/m 12,9 km/h (3 Bft) 100,00 %
08.03.2020 07:46 6,9 C 6,1 C 5,6 C 88 % 1014,6 hPa 0,0 l/m 0 min 0 min 16 W/m 22,5 km/h (4 Bft) 100,00 %
08.03.2020 07:48 6,9 C 6,1 C 5,6 C 88 % 1014,6 hPa 0,0 l/m 0 min 0 min 16 W/m 19,3 km/h (3 Bft) 97,83 %
08.03.2020 07:50 6,9 C 6,1 C 5,6 C 88 % 1014,6 hPa 0,0 l/m 0 min 0 min 16 W/m 19,3 km/h (3 Bft) 95,74 %
08.03.2020 07:52 6,9 C 6,1 C 5,6 C 89 % 1014,6 hPa 0,0 l/m 0 min 0 min 16 W/m 19,3 km/h (3 Bft) 97,87 %
08.03.2020 07:54 6,9 C 6,1 C 5,6 C 89 % 1014,6 hPa 0,0 l/m 0 min 0 min 16 W/m 16,1 km/h (3 Bft) 97,87 %
08.03.2020 07:56 6,8 C 6,1 C 5,6 C 89 % 1014,6 hPa 0,0 l/m 0 min 0 min 16 W/m 16,1 km/h (3 Bft) 97,87 %
08.03.2020 07:58 6,9 C 6,1 C 5,6 C 89 % 1014,6 hPa 0,0 l/m 0 min 0 min 17 W/m 19,3 km/h (3 Bft) 95,65 %
08.03.2020 08:00 6,8 C 6,1 C 5,6 C 89 % 1014,6 hPa 0,0 l/m 0 min 0 min 19 W/m 12,9 km/h (3 Bft) 100,00 %
08.03.2020 08:02 6,8 C 6,1 C 5,6 C 89 % 1014,7 hPa 0,0 l/m 0 min 0 min 19 W/m 19,3 km/h (3 Bft) 97,87 %
08.03.2020 08:04 6,8 C 6,1 C 5,6 C 89 % 1014,7 hPa 0,0 l/m 0 min 0 min 19 W/m 16,1 km/h (3 Bft) 97,87 %
08.03.2020 08:06 6,8 C 6,1 C 5,6 C 89 % 1014,7 hPa 0,0 l/m 0 min 0 min 20 W/m 16,1 km/h (3 Bft) 97,87 %
08.03.2020 08:08 6,8 C 6,1 C 5,6 C 89 % 1014,7 hPa 0,0 l/m 0 min 0 min 21 W/m 22,5 km/h (4 Bft) 100,00 %
08.03.2020 08:10 6,8 C 6,1 C 5,6 C 89 % 1014,7 hPa 0,0 l/m 0 min 0 min 22 W/m 16,1 km/h (3 Bft) 97,83 %
08.03.2020 08:12 6,8 C 6,1 C 5,6 C 89 % 1014,7 hPa 0,0 l/m 0 min 0 min 23 W/m 19,3 km/h (3 Bft) 97,87 %
08.03.2020 08:14 6,8 C 6,1 C 5,6 C 89 % 1014,7 hPa 0,0 l/m 0 min 0 min 25 W/m 16,1 km/h (3 Bft) 97,87 %
08.03.2020 08:16 6,8 C 6,1 C 5,6 C 89 % 1014,8 hPa 0,0 l/m 0 min 0 min 27 W/m 12,9 km/h (3 Bft) 96,30 %
08.03.2020 08:18 6,8 C 6,1 C 5,6 C 89 % 1014,8 hPa 0,0 l/m 0 min 0 min 30 W/m 16,1 km/h (3 Bft) 96,00 %
08.03.2020 08:20 6,8 C 6,7 C 5,6 C 89 % 1014,8 hPa 0,0 l/m 0 min 0 min 32 W/m 16,1 km/h (3 Bft) 95,74 %
08.03.2020 08:22 6,8 C 6,7 C 5,6 C 89 % 1014,8 hPa 0,0 l/m 0 min 0 min 35 W/m 19,3 km/h (3 Bft) 95,65 %
08.03.2020 08:24 6,9 C 6,7 C 5,6 C 89 % 1014,7 hPa 0,0 l/m 0 min 0 min 38 W/m 22,5 km/h (4 Bft) 95,74 %
08.03.2020 08:26 6,9 C 6,7 C 5,6 C 89 % 1014,6 hPa 0,0 l/m 0 min 0 min 42 W/m 19,3 km/h (3 Bft) 95,74 %
08.03.2020 08:28 6,9 C 6,7 C 5,6 C 89 % 1014,6 hPa 0,0 l/m 0 min 0 min 46 W/m 16,1 km/h (3 Bft) 93,62 %
08.03.2020 08:30 6,9 C 6,7 C 5,6 C 89 % 1014,6 hPa 0,0 l/m 0 min 0 min 52 W/m 16,1 km/h (3 Bft) 95,74 %
08.03.2020 08:32 6,9 C 6,7 C 6,1 C 89 % 1014,6 hPa 0,0 l/m 0 min 0 min 56 W/m 0,0 km/h (0 Bft) 95,74 %
08.03.2020 08:34 6,9 C 6,7 C 6,1 C 89 % 1014,6 hPa 0,0 l/m 0 min 0 min 62 W/m 19,3 km/h (3 Bft) 97,83 %
08.03.2020 08:36 6,9 C 6,7 C 6,1 C 89 % 1014,6 hPa 0,0 l/m 0 min 0 min 65 W/m 25,7 km/h (4 Bft) 97,96 %
08.03.2020 08:38 6,9 C 7,2 C 6,1 C 89 % 1014,5 hPa 0,0 l/m 0 min 0 min 69 W/m 19,3 km/h (3 Bft) 97,87 %
08.03.2020 08:40 7,0 C 7,2 C 6,1 C 89 % 1014,5 hPa 0,0 l/m 0 min 0 min 74 W/m 22,5 km/h (4 Bft) 95,74 %
08.03.2020 08:42 7,0 C 7,2 C 6,7 C 89 % 1014,5 hPa 0,0 l/m 0 min 0 min 79 W/m 9,7 km/h (2 Bft) 97,83 %
08.03.2020 08:44 7,1 C 7,2 C 6,7 C 89 % 1014,5 hPa 0,0 l/m 0 min 0 min 83 W/m 16,1 km/h (3 Bft) 97,87 %
08.03.2020 08:46 7,1 C 7,2 C 6,7 C 89 % 1014,4 hPa 0,0 l/m 0 min 0 min 85 W/m 22,5 km/h (4 Bft) 97,14 %
08.03.2020 08:48 7,1 C 7,2 C 6,7 C 89 % 1014,4 hPa 0,0 l/m 0 min 0 min 89 W/m 25,7 km/h (4 Bft) 95,74 %
08.03.2020 08:50 7,2 C 7,2 C 6,7 C 89 % 1014,3 hPa 0,0 l/m 0 min 0 min 95 W/m 19,3 km/h (3 Bft) 95,74 %
08.03.2020 08:52 7,2 C 7,8 C 6,7 C 89 % 1014,3 hPa 0,0 l/m 0 min 0 min 99 W/m 16,1 km/h (3 Bft) 97,87 %
08.03.2020 08:54 7,3 C 7,8 C 6,7 C 89 % 1014,2 hPa 0,0 l/m 0 min 0 min 107 W/m 25,7 km/h (4 Bft) 95,74 %
08.03.2020 08:56 7,3 C 7,8 C 6,7 C 89 % 1014,1 hPa 0,0 l/m 0 min 0 min 113 W/m 22,5 km/h (4 Bft) 96,30 %
08.03.2020 08:58 7,4 C 7,8 C 6,7 C 89 % 1014,0 hPa 0,0 l/m 0 min 0 min 116 W/m 22,5 km/h (4 Bft) 100,00 %
08.03.2020 09:00 7,4 C 7,8 C 7,2 C 88 % 1014,0 hPa 0,0 l/m 0 min 0 min 123 W/m 22,5 km/h (4 Bft) 100,00 %
08.03.2020 09:02 7,5 C 8,3 C 7,2 C 88 % 1014,0 hPa 0,0 l/m 0 min 0 min 138 W/m 22,5 km/h (4 Bft) 96,00 %
08.03.2020 09:04 7,6 C 8,3 C 7,2 C 88 % 1014,0 hPa 0,0 l/m 0 min 0 min 144 W/m 22,5 km/h (4 Bft) 93,62 %
08.03.2020 09:06 7,6 C 8,3 C 7,8 C 88 % 1014,0 hPa 0,0 l/m 2 min 0 min 151 W/m 22,5 km/h (4 Bft) 95,74 %
08.03.2020 09:08 7,7 C 8,3 C 7,8 C 88 % 1014,0 hPa 0,0 l/m 2 min 0 min 173 W/m 25,7 km/h (4 Bft) 93,48 %
08.03.2020 09:10 7,8 C 8,9 C 7,8 C 88 % 1014,0 hPa 0,0 l/m 2 min 0 min 185 W/m 25,7 km/h (4 Bft) 93,62 %
08.03.2020 09:12 7,9 C 8,9 C 7,8 C 87 % 1014,0 hPa 0,0 l/m 2 min 0 min 173 W/m 25,7 km/h (4 Bft) 95,74 %
08.03.2020 09:14 7,9 C 9,4 C 7,8 C 87 % 1014,0 hPa 0,0 l/m 2 min 0 min 171 W/m 19,3 km/h (3 Bft) 95,74 %
08.03.2020 09:16 8,1 C 8,9 C 7,8 C 87 % 1014,1 hPa 0,0 l/m 2 min 0 min 171 W/m 19,3 km/h (3 Bft) 97,92 %
08.03.2020 09:18 8,1 C 8,9 C 7,8 C 87 % 1014,1 hPa 0,0 l/m 0 min 0 min 134 W/m 16,1 km/h (3 Bft) 97,22 %
08.03.2020 09:20 8,2 C 8,9 C 7,8 C 86 % 1014,1 hPa 0,0 l/m 0 min 0 min 131 W/m 32,2 km/h (5 Bft) 95,65 %
08.03.2020 09:22 8,3 C 8,9 C 8,3 C 86 % 1014,1 hPa 0,0 l/m 0 min 0 min 135 W/m 25,7 km/h (4 Bft) 97,87 %
08.03.2020 09:24 8,3 C 9,4 C 8,3 C 85 % 1014,1 hPa 0,0 l/m 0 min 0 min 139 W/m 25,7 km/h (4 Bft) 97,87 %
08.03.2020 09:26 8,4 C 9,4 C 8,3 C 85 % 1014,1 hPa 0,0 l/m 0 min 0 min 144 W/m 25,7 km/h (4 Bft) 98,15 %
08.03.2020 09:28 8,6 C 9,4 C 8,3 C 84 % 1014,1 hPa 0,0 l/m 0 min 0 min 146 W/m 35,4 km/h (5 Bft) 97,87 %
08.03.2020 09:30 8,6 C 9,4 C 8,3 C 84 % 1014,1 hPa 0,0 l/m 0 min 0 min 147 W/m 25,7 km/h (4 Bft) 95,74 %
08.03.2020 09:32 8,7 C 10,0 C 8,9 C 83 % 1014,1 hPa 0,0 l/m 2 min 0 min 186 W/m 22,5 km/h (4 Bft) 95,92 %
08.03.2020 09:34 8,8 C 10,0 C 8,9 C 83 % 1014,1 hPa 0,0 l/m 2 min 0 min 183 W/m 32,2 km/h (5 Bft) 97,87 %
08.03.2020 09:36 8,8 C 10,0 C 8,9 C 83 % 1014,1 hPa 0,0 l/m 0 min 0 min 150 W/m 22,5 km/h (4 Bft) 97,96 %
08.03.2020 09:38 8,9 C 9,4 C 8,9 C 82 % 1014,0 hPa 0,0 l/m 0 min 0 min 144 W/m 32,2 km/h (5 Bft) 97,87 %
08.03.2020 09:40 9,0 C 9,4 C 8,9 C 82 % 1014,0 hPa 0,0 l/m 0 min 0 min 147 W/m 29,0 km/h (5 Bft) 97,83 %
08.03.2020 09:42 9,1 C 10,0 C 8,9 C 82 % 1014,0 hPa 0,0 l/m 0 min 0 min 158 W/m 29,0 km/h (5 Bft) 95,74 %
08.03.2020 09:44 9,1 C 10,0 C 9,4 C 81 % 1014,0 hPa 0,0 l/m 0 min 0 min 172 W/m 38,6 km/h (5 Bft) 97,87 %
08.03.2020 09:46 9,2 C 10,6 C 9,4 C 81 % 1014,0 hPa 0,0 l/m 2 min 0 min 235 W/m 22,5 km/h (4 Bft) 97,87 %
08.03.2020 09:48 9,3 C 11,1 C 9,4 C 81 % 1014,1 hPa 0,0 l/m 2 min 0 min 245 W/m 19,3 km/h (3 Bft) 97,87 %
08.03.2020 09:50 9,3 C 11,1 C 9,4 C 81 % 1014,1 hPa 0,0 l/m 2 min 0 min 227 W/m 29,0 km/h (5 Bft) 97,87 %
08.03.2020 09:52 9,4 C 11,1 C 9,4 C 81 % 1014,0 hPa 0,0 l/m 2 min 0 min 271 W/m 19,3 km/h (3 Bft) 97,14 %
08.03.2020 09:54 9,6 C 12,2 C 9,4 C 81 % 1014,0 hPa 0,0 l/m 2 min 0 min 310 W/m 16,1 km/h (3 Bft) 97,83 %
08.03.2020 09:56 9,6 C 12,2 C 9,4 C 80 % 1014,1 hPa 0,0 l/m 2 min 0 min 332 W/m 25,7 km/h (4 Bft) 95,74 %
08.03.2020 09:58 9,7 C 12,2 C 9,4 C 80 % 1014,1 hPa 0,0 l/m 2 min 0 min 311 W/m 29,0 km/h (5 Bft) 97,87 %
08.03.2020 10:00 9,8 C 12,8 C 9,4 C 79 % 1014,0 hPa 0,0 l/m 2 min 0 min 305 W/m 25,7 km/h (4 Bft) 100,00 %
08.03.2020 10:02 9,9 C 12,2 C 9,4 C 79 % 1014,0 hPa 0,0 l/m 2 min 0 min 278 W/m 22,5 km/h (4 Bft) 97,87 %
08.03.2020 10:04 10,1 C 12,2 C 9,4 C 78 % 1014,0 hPa 0,0 l/m 2 min 0 min 320 W/m 25,7 km/h (4 Bft) 98,15 %
08.03.2020 10:06 10,2 C 12,8 C 10,0 C 78 % 1014,0 hPa 0,0 l/m 2 min 0 min 373 W/m 29,0 km/h (5 Bft) 100,00 %
08.03.2020 10:08 10,3 C 12,8 C 10,0 C 78 % 1013,9 hPa 0,0 l/m 2 min 0 min 359 W/m 32,2 km/h (5 Bft) 100,00 %
08.03.2020 10:10 10,4 C 13,3 C 10,0 C 77 % 1013,9 hPa 0,0 l/m 2 min 0 min 352 W/m 25,7 km/h (4 Bft) 100,00 %
08.03.2020 10:12 10,5 C 13,9 C 10,0 C 77 % 1013,9 hPa 0,0 l/m 2 min 0 min 405 W/m 29,0 km/h (5 Bft) 100,00 %
08.03.2020 10:14 10,6 C 13,3 C 10,0 C 77 % 1013,8 hPa 0,0 l/m 2 min 0 min 381 W/m 22,5 km/h (4 Bft) 97,87 %
08.03.2020 10:16 10,7 C 13,3 C 10,0 C 76 % 1013,8 hPa 0,0 l/m 2 min 0 min 305 W/m 16,1 km/h (3 Bft) 100,00 %
08.03.2020 10:18 10,8 C 13,3 C 10,0 C 76 % 1013,8 hPa 0,0 l/m 2 min 0 min 297 W/m 22,5 km/h (4 Bft) 97,83 %
08.03.2020 10:20 10,9 C 13,9 C 10,0 C 76 % 1013,6 hPa 0,0 l/m 2 min 0 min 324 W/m 29,0 km/h (5 Bft) 97,87 %
08.03.2020 10:22 11,0 C 14,4 C 10,6 C 76 % 1013,6 hPa 0,0 l/m 2 min 0 min 413 W/m 29,0 km/h (5 Bft) 95,74 %
08.03.2020 10:24 11,1 C 14,4 C 10,6 C 74 % 1013,7 hPa 0,0 l/m 2 min 0 min 484 W/m 25,7 km/h (4 Bft) 98,00 %
08.03.2020 10:26 11,2 C 14,4 C 10,6 C 74 % 1013,7 hPa 0,0 l/m 2 min 0 min 558 W/m 32,2 km/h (5 Bft) 97,87 %
08.03.2020 10:28 11,4 C 13,9 C 10,6 C 73 % 1013,6 hPa 0,0 l/m 2 min 0 min 506 W/m 41,8 km/h (6 Bft) 97,87 %
08.03.2020 10:30 11,5 C 14,4 C 11,1 C 72 % 1013,7 hPa 0,0 l/m 2 min 0 min 481 W/m 38,6 km/h (5 Bft) 95,65 %
08.03.2020 10:32 11,6 C 13,9 C 11,1 C 71 % 1013,6 hPa 0,0 l/m 2 min 0 min 427 W/m 35,4 km/h (5 Bft) 98,00 %
08.03.2020 10:34 11,7 C 13,3 C 10,6 C 71 % 1013,6 hPa 0,0 l/m 2 min 0 min 376 W/m 32,2 km/h (5 Bft) 97,87 %
08.03.2020 10:36 11,7 C 12,8 C 10,6 C 71 % 1013,6 hPa 0,0 l/m 2 min 0 min 285 W/m 35,4 km/h (5 Bft) 97,87 %
08.03.2020 10:38 11,7 C 12,8 C 10,6 C 71 % 1013,5 hPa 0,0 l/m 2 min 0 min 244 W/m 32,2 km/h (5 Bft) 95,65 %
08.03.2020 10:40 11,7 C 12,2 C 10,6 C 70 % 1013,4 hPa 0,0 l/m 0 min 0 min 228 W/m 38,6 km/h (5 Bft) 97,87 %
08.03.2020 10:42 11,7 C 11,7 C 10,0 C 70 % 1013,5 hPa 0,0 l/m 0 min 0 min 212 W/m 35,4 km/h (5 Bft) 97,87 %
08.03.2020 10:44 11,7 C 12,2 C 10,0 C 70 % 1013,6 hPa 0,0 l/m 0 min 0 min 220 W/m 32,2 km/h (5 Bft) 94,29 %
08.03.2020 10:46 11,6 C 13,9 C 10,6 C 70 % 1013,7 hPa 0,0 l/m 2 min 0 min 371 W/m 29,0 km/h (5 Bft) 96,61 %
08.03.2020 10:48 11,6 C 14,4 C 10,6 C 71 % 1013,7 hPa 0,0 l/m 2 min 0 min 537 W/m 35,4 km/h (5 Bft) 97,87 %
08.03.2020 10:50 11,7 C 15,0 C 10,6 C 70 % 1013,6 hPa 0,0 l/m 2 min 0 min 521 W/m 32,2 km/h (5 Bft) 100,00 %
08.03.2020 10:52 11,8 C 15,6 C 10,6 C 70 % 1013,5 hPa 0,0 l/m 2 min 0 min 546 W/m 22,5 km/h (4 Bft) 96,55 %
08.03.2020 10:54 11,8 C 15,6 C 11,1 C 71 % 1013,6 hPa 0,0 l/m 2 min 0 min 574 W/m 29,0 km/h (5 Bft) 94,29 %
08.03.2020 10:56 11,9 C 15,6 C 11,1 C 71 % 1013,6 hPa 0,0 l/m 2 min 0 min 580 W/m 35,4 km/h (5 Bft) 100,00 %
08.03.2020 10:58 12,0 C 15,6 C 11,1 C 70 % 1013,5 hPa 0,0 l/m 2 min 0 min 594 W/m 48,3 km/h (6 Bft) 100,00 %
08.03.2020 11:00 12,1 C 15,6 C 11,1 C 70 % 1013,5 hPa 0,0 l/m 2 min 0 min 641 W/m 29,0 km/h (5 Bft) 100,00 %
08.03.2020 11:02 12,2 C 15,0 C 11,7 C 69 % 1013,4 hPa 0,0 l/m 2 min 0 min 649 W/m 32,2 km/h (5 Bft) 100,00 %
08.03.2020 11:04 12,3 C 14,4 C 11,1 C 69 % 1013,3 hPa 0,0 l/m 2 min 0 min 649 W/m 48,3 km/h (6 Bft) 97,87 %
08.03.2020 11:06 12,3 C 14,4 C 11,1 C 68 % 1013,4 hPa 0,0 l/m 2 min 0 min 668 W/m 41,8 km/h (6 Bft) 100,00 %
08.03.2020 11:08 12,3 C 13,3 C 11,1 C 68 % 1013,4 hPa 0,0 l/m 2 min 0 min 691 W/m 41,8 km/h (6 Bft) 100,00 %
08.03.2020 11:10 12,3 C 14,4 C 11,7 C 69 % 1013,2 hPa 0,0 l/m 2 min 0 min 718 W/m 35,4 km/h (5 Bft) 97,87 %
08.03.2020 11:12 12,3 C 16,1 C 11,7 C 69 % 1013,3 hPa 0,0 l/m 2 min 0 min 523 W/m 38,6 km/h (5 Bft) 100,00 %
08.03.2020 11:14 12,4 C 15,0 C 12,2 C 69 % 1013,2 hPa 0,0 l/m 2 min 0 min 526 W/m 32,2 km/h (5 Bft) 97,14 %
08.03.2020 11:16 12,4 C 12,8 C 11,7 C 68 % 1013,3 hPa 0,0 l/m 2 min 0 min 394 W/m 48,3 km/h (6 Bft) 98,28 %
08.03.2020 11:18 12,3 C 12,2 C 11,1 C 68 % 1013,2 hPa 0,0 l/m 0 min 0 min 211 W/m 32,2 km/h (5 Bft) 97,87 %
08.03.2020 11:20 12,3 C 11,7 C 11,1 C 69 % 1013,2 hPa 0,0 l/m 0 min 0 min 188 W/m 48,3 km/h (6 Bft) 97,14 %
08.03.2020 11:22 12,2 C 11,1 C 11,1 C 69 % 1013,1 hPa 0,0 l/m 0 min 0 min 171 W/m 35,4 km/h (5 Bft) 95,74 %
08.03.2020 11:24 12,1 C 11,7 C 11,1 C 69 % 1013,2 hPa 0,0 l/m 0 min 0 min 184 W/m 32,2 km/h (5 Bft) 97,87 %
08.03.2020 11:26 12,1 C 11,7 C 11,1 C 69 % 1013,1 hPa 0,0 l/m 0 min 0 min 193 W/m 32,2 km/h (5 Bft) 98,28 %
08.03.2020 11:28 11,9 C 11,7 C 11,1 C 70 % 1013,1 hPa 0,0 l/m 0 min 0 min 201 W/m 25,7 km/h (4 Bft) 97,87 %
08.03.2020 11:30 11,9 C 11,7 C 11,1 C 70 % 1013,0 hPa 0,0 l/m 0 min 0 min 202 W/m 22,5 km/h (4 Bft) 97,87 %
08.03.2020 11:32 11,8 C 11,1 C 10,6 C 70 % 1012,9 hPa 0,0 l/m 0 min 0 min 197 W/m 38,6 km/h (5 Bft) 95,74 %
08.03.2020 11:34 11,8 C 11,1 C 10,6 C 70 % 1013,0 hPa 0,0 l/m 0 min 0 min 172 W/m 35,4 km/h (5 Bft) 95,74 %
08.03.2020 11:36 11,7 C 11,1 C 10,6 C 71 % 1013,0 hPa 0,0 l/m 0 min 0 min 145 W/m 32,2 km/h (5 Bft) 95,65 %
08.03.2020 11:38 11,7 C 11,1 C 10,6 C 71 % 1012,9 hPa 0,0 l/m 0 min 0 min 127 W/m 19,3 km/h (3 Bft) 97,87 %
08.03.2020 11:40 11,6 C 11,1 C 10,6 C 71 % 1012,9 hPa 0,0 l/m 0 min 0 min 113 W/m 22,5 km/h (4 Bft) 97,87 %
08.03.2020 11:42 11,6 C 11,1 C 10,6 C 71 % 1012,9 hPa 0,0 l/m 0 min 0 min 106 W/m 29,0 km/h (5 Bft) 97,87 %
08.03.2020 11:44 11,5 C 10,6 C 10,6 C 71 % 1012,9 hPa 0,0 l/m 0 min 0 min 103 W/m 35,4 km/h (5 Bft) 95,74 %
08.03.2020 11:46 11,4 C 10,6 C 10,0 C 71 % 1012,9 hPa 0,0 l/m 0 min 0 min 105 W/m 38,6 km/h (5 Bft) 97,87 %
08.03.2020 11:48 11,4 C 10,6 C 10,0 C 71 % 1012,8 hPa 0,0 l/m 0 min 0 min 111 W/m 29,0 km/h (5 Bft) 97,83 %
08.03.2020 11:50 11,3 C 10,6 C 10,0 C 71 % 1012,8 hPa 0,0 l/m 0 min 0 min 109 W/m 35,4 km/h (5 Bft) 97,87 %
08.03.2020 11:52 11,3 C 10,6 C 10,0 C 72 % 1012,8 hPa 0,0 l/m 0 min 0 min 112 W/m 29,0 km/h (5 Bft) 97,87 %
08.03.2020 11:54 11,3 C 11,1 C 10,6 C 72 % 1012,9 hPa 0,0 l/m 0 min 0 min 115 W/m 29,0 km/h (5 Bft) 97,87 %
08.03.2020 11:56 11,3 C 10,6 C 10,6 C 72 % 1012,8 hPa 0,0 l/m 0 min 0 min 117 W/m 25,7 km/h (4 Bft) 97,87 %
08.03.2020 11:58 11,3 C 10,6 C 10,0 C 73 % 1012,8 hPa 0,0 l/m 0 min 0 min 114 W/m 29,0 km/h (5 Bft) 97,87 %
08.03.2020 12:00 11,2 C 10,6 C 10,0 C 73 % 1012,8 hPa 0,0 l/m 0 min 0 min 110 W/m 35,4 km/h (5 Bft) 97,83 %
08.03.2020 12:02 11,2 C 11,1 C 10,6 C 73 % 1012,7 hPa 0,0 l/m 0 min 0 min 110 W/m 12,9 km/h (3 Bft) 91,43 %
08.03.2020 12:04 11,2 C 11,1 C 10,6 C 73 % 1012,7 hPa 0,0 l/m 0 min 0 min 107 W/m 12,9 km/h (3 Bft) 97,87 %
08.03.2020 12:08 11,2 C 11,1 C 10,6 C 73 % 1012,6 hPa 0,0 l/m 0 min 0 min 120 W/m 29,0 km/h (5 Bft) 98,94 %
08.03.2020 12:10 11,2 C 11,1 C 10,6 C 73 % 1012,6 hPa 0,0 l/m 0 min 0 min 122 W/m 19,3 km/h (3 Bft) 100,00 %
08.03.2020 12:12 11,2 C 11,1 C 10,6 C 73 % 1012,6 hPa 0,0 l/m 0 min 0 min 109 W/m 32,2 km/h (5 Bft) 100,00 %
08.03.2020 12:14 11,2 C 11,1 C 10,6 C 73 % 1012,6 hPa 0,0 l/m 0 min 0 min 101 W/m 16,1 km/h (3 Bft) 100,00 %
08.03.2020 12:16 11,2 C 11,1 C 10,6 C 73 % 1012,5 hPa 0,0 l/m 0 min 0 min 99 W/m 19,3 km/h (3 Bft) 95,74 %
08.03.2020 12:18 11,2 C 11,1 C 10,6 C 74 % 1012,5 hPa 0,0 l/m 0 min 0 min 98 W/m 16,1 km/h (3 Bft) 97,87 %
08.03.2020 12:20 11,2 C 11,1 C 10,6 C 74 % 1012,5 hPa 0,0 l/m 0 min 0 min 106 W/m 19,3 km/h (3 Bft) 100,00 %
08.03.2020 12:22 11,2 C 11,1 C 10,6 C 74 % 1012,4 hPa 0,0 l/m 0 min 0 min 123 W/m 41,8 km/h (6 Bft) 100,00 %
08.03.2020 12:24 11,2 C 11,1 C 10,6 C 73 % 1012,4 hPa 0,0 l/m 0 min 0 min 122 W/m 29,0 km/h (5 Bft) 97,87 %
08.03.2020 12:26 11,3 C 11,1 C 10,6 C 74 % 1012,3 hPa 0,0 l/m 0 min 0 min 141 W/m 29,0 km/h (5 Bft) 97,83 %
08.03.2020 12:28 11,3 C 11,1 C 10,6 C 74 % 1012,4 hPa 0,0 l/m 0 min 0 min 163 W/m 35,4 km/h (5 Bft) 100,00 %
08.03.2020 12:30 11,3 C 11,1 C 10,6 C 74 % 1012,4 hPa 0,0 l/m 0 min 0 min 182 W/m 35,4 km/h (5 Bft) 100,00 %
08.03.2020 12:32 11,3 C 11,7 C 10,6 C 74 % 1012,4 hPa 0,0 l/m 0 min 0 min 195 W/m 29,0 km/h (5 Bft) 100,00 %
08.03.2020 12:34 11,3 C 11,7 C 11,1 C 74 % 1012,3 hPa 0,0 l/m 0 min 0 min 261 W/m 29,0 km/h (5 Bft) 100,00 %
08.03.2020 12:36 11,3 C 12,2 C 11,7 C 74 % 1012,2 hPa 0,0 l/m 2 min 0 min 328 W/m 41,8 km/h (6 Bft) 100,00 %
08.03.2020 12:38 11,4 C 12,8 C 11,7 C 74 % 1012,2 hPa 0,0 l/m 2 min 0 min 325 W/m 19,3 km/h (3 Bft) 100,00 %
08.03.2020 12:40 11,5 C 12,8 C 12,2 C 74 % 1012,2 hPa 0,0 l/m 2 min 0 min 284 W/m 35,4 km/h (5 Bft) 100,00 %
08.03.2020 12:42 11,6 C 12,2 C 11,7 C 74 % 1012,2 hPa 0,0 l/m 0 min 0 min 245 W/m 25,7 km/h (4 Bft) 100,00 %
08.03.2020 12:44 11,6 C 11,7 C 11,1 C 73 % 1012,2 hPa 0,0 l/m 0 min 0 min 196 W/m 29,0 km/h (5 Bft) 100,00 %
08.03.2020 12:46 11,7 C 11,7 C 11,1 C 73 % 1012,3 hPa 0,0 l/m 0 min 0 min 165 W/m 41,8 km/h (6 Bft) 97,87 %
08.03.2020 12:48 11,7 C 11,7 C 11,1 C 72 % 1012,2 hPa 0,0 l/m 0 min 0 min 170 W/m 29,0 km/h (5 Bft) 100,00 %
08.03.2020 12:50 11,7 C 11,7 C 11,1 C 72 % 1012,1 hPa 0,0 l/m 0 min 0 min 179 W/m 48,3 km/h (6 Bft) 97,83 %
08.03.2020 12:52 11,7 C 11,7 C 11,1 C 72 % 1012,2 hPa 0,0 l/m 0 min 0 min 192 W/m 29,0 km/h (5 Bft) 93,62 %
08.03.2020 12:54 11,7 C 11,7 C 11,1 C 72 % 1012,2 hPa 0,0 l/m 0 min 0 min 161 W/m 38,6 km/h (5 Bft) 97,87 %
08.03.2020 12:56 11,7 C 11,1 C 10,6 C 73 % 1012,1 hPa 0,0 l/m 0 min 0 min 145 W/m 25,7 km/h (4 Bft) 95,74 %
08.03.2020 12:58 11,6 C 11,1 C 10,6 C 73 % 1012,0 hPa 0,0 l/m 0 min 0 min 150 W/m 25,7 km/h (4 Bft) 97,87 %
08.03.2020 13:00 11,6 C 11,1 C 10,6 C 73 % 1012,1 hPa 0,0 l/m 0 min 0 min 142 W/m 25,7 km/h (4 Bft) 97,87 %
08.03.2020 13:02 11,6 C 11,1 C 10,6 C 73 % 1012,0 hPa 0,0 l/m 0 min 0 min 119 W/m 35,4 km/h (5 Bft) 95,65 %
08.03.2020 13:04 11,6 C 11,1 C 10,6 C 73 % 1012,1 hPa 0,0 l/m 0 min 0 min 95 W/m 29,0 km/h (5 Bft) 94,34 %
08.03.2020 13:06 11,6 C 10,6 C 10,6 C 73 % 1012,1 hPa 0,0 l/m 0 min 0 min 82 W/m 41,8 km/h (6 Bft) 95,74 %
08.03.2020 13:08 11,5 C 10,6 C 10,6 C 73 % 1012,1 hPa 0,0 l/m 0 min 0 min 83 W/m 51,5 km/h (7 Bft) 93,62 %
08.03.2020 13:10 11,4 C 10,6 C 10,6 C 73 % 1012,1 hPa 0,0 l/m 0 min 0 min 90 W/m 38,6 km/h (5 Bft) 95,74 %
08.03.2020 13:12 11,4 C 10,6 C 10,6 C 73 % 1012,0 hPa 0,0 l/m 0 min 0 min 95 W/m 38,6 km/h (5 Bft) 95,92 %
08.03.2020 13:14 11,4 C 10,6 C 10,6 C 73 % 1011,9 hPa 0,0 l/m 0 min 0 min 99 W/m 35,4 km/h (5 Bft) 96,00 %
08.03.2020 13:16 11,4 C 10,6 C 10,6 C 73 % 1012,0 hPa 0,0 l/m 0 min 0 min 94 W/m 29,0 km/h (5 Bft) 95,74 %
08.03.2020 13:18 11,3 C 10,6 C 10,6 C 73 % 1012,0 hPa 0,0 l/m 0 min 0 min 81 W/m 35,4 km/h (5 Bft) 95,74 %
08.03.2020 13:20 11,3 C 10,6 C 10,0 C 74 % 1012,0 hPa 0,0 l/m 0 min 0 min 82 W/m 32,2 km/h (5 Bft) 95,65 %
08.03.2020 13:22 11,3 C 10,6 C 10,0 C 74 % 1011,9 hPa 0,0 l/m 0 min 0 min 88 W/m 35,4 km/h (5 Bft) 93,62 %
08.03.2020 13:24 11,3 C 10,6 C 10,0 C 74 % 1011,9 hPa 0,0 l/m 0 min 0 min 94 W/m 22,5 km/h (4 Bft) 95,74 %
08.03.2020 13:26 11,3 C 10,6 C 10,0 C 74 % 1011,9 hPa 0,0 l/m 0 min 0 min 91 W/m 25,7 km/h (4 Bft) 93,62 %
08.03.2020 13:28 11,3 C 10,6 C 10,0 C 75 % 1011,9 hPa 0,0 l/m 0 min 0 min 93 W/m 32,2 km/h (5 Bft) 93,62 %
08.03.2020 13:30 11,3 C 10,6 C 10,6 C 75 % 1011,9 hPa 0,0 l/m 0 min 0 min 101 W/m 22,5 km/h (4 Bft) 95,74 %
08.03.2020 13:32 11,2 C 10,6 C 10,6 C 75 % 1011,9 hPa 0,0 l/m 0 min 0 min 111 W/m 38,6 km/h (5 Bft) 95,65 %
08.03.2020 13:34 11,2 C 10,6 C 10,0 C 75 % 1011,9 hPa 0,0 l/m 0 min 0 min 105 W/m 38,6 km/h (5 Bft) 97,87 %
08.03.2020 13:36 11,2 C 10,6 C 10,0 C 75 % 1011,9 hPa 0,0 l/m 0 min 0 min 113 W/m 38,6 km/h (5 Bft) 95,74 %
08.03.2020 13:38 11,2 C 10,6 C 10,0 C 76 % 1011,9 hPa 0,0 l/m 0 min 2 min 102 W/m 25,7 km/h (4 Bft) 54,35 %
08.03.2020 13:40 11,2 C 9,4 C 8,9 C 77 % 1011,9 hPa 0,0 l/m 0 min 2 min 80 W/m 19,3 km/h (3 Bft) 97,87 %
08.03.2020 13:42 11,2 C 8,9 C 8,3 C 77 % 1011,8 hPa 0,0 l/m 0 min 2 min 81 W/m 32,2 km/h (5 Bft) 97,87 %
08.03.2020 13:44 11,1 C 8,3 C 8,3 C 78 % 1011,7 hPa 0,0 l/m 0 min 2 min 87 W/m 25,7 km/h (4 Bft) 93,48 %
08.03.2020 13:46 11,1 C 8,3 C 8,3 C 78 % 1011,8 hPa 0,0 l/m 0 min 2 min 74 W/m 41,8 km/h (6 Bft) 97,87 %
08.03.2020 13:48 11,0 C 8,3 C 8,3 C 78 % 1011,8 hPa 0,0 l/m 0 min 2 min 54 W/m 35,4 km/h (5 Bft) 97,87 %
08.03.2020 13:50 10,9 C 8,9 C 8,9 C 78 % 1011,8 hPa 0,0 l/m 0 min 2 min 51 W/m 38,6 km/h (5 Bft) 97,87 %
08.03.2020 13:52 10,9 C 9,4 C 8,9 C 78 % 1011,7 hPa 0,0 l/m 0 min 2 min 53 W/m 41,8 km/h (6 Bft) 97,14 %
08.03.2020 13:54 10,8 C 10,0 C 9,4 C 78 % 1011,8 hPa 0,0 l/m 0 min 2 min 49 W/m 41,8 km/h (6 Bft) 100,00 %
08.03.2020 13:56 10,8 C 10,0 C 9,4 C 79 % 1011,8 hPa 0,0 l/m 0 min 0 min 50 W/m 22,5 km/h (4 Bft) 100,00 %
08.03.2020 13:58 10,7 C 10,0 C 9,4 C 79 % 1011,7 hPa 0,0 l/m 0 min 0 min 50 W/m 25,7 km/h (4 Bft) 100,00 %
08.03.2020 14:00 10,7 C 10,0 C 9,4 C 79 % 1011,7 hPa 0,0 l/m 0 min 0 min 49 W/m 16,1 km/h (3 Bft) 100,00 %
08.03.2020 14:02 10,7 C 10,0 C 9,4 C 79 % 1011,7 hPa 0,0 l/m 0 min 0 min 50 W/m 25,7 km/h (4 Bft) 100,00 %
08.03.2020 14:04 10,7 C 10,0 C 9,4 C 80 % 1011,7 hPa 0,0 l/m 0 min 2 min 48 W/m 22,5 km/h (4 Bft) 100,00 %
08.03.2020 14:06 10,7 C 10,0 C 8,9 C 80 % 1011,6 hPa 0,0 l/m 0 min 0 min 58 W/m 22,5 km/h (4 Bft) 100,00 %
08.03.2020 14:08 10,7 C 10,0 C 8,9 C 80 % 1011,6 hPa 0,0 l/m 0 min 0 min 67 W/m 19,3 km/h (3 Bft) 100,00 %
08.03.2020 14:10 10,6 C 10,0 C 8,9 C 80 % 1011,6 hPa 0,0 l/m 0 min 0 min 73 W/m 38,6 km/h (5 Bft) 97,83 %
08.03.2020 14:12 10,6 C 10,0 C 8,9 C 80 % 1011,6 hPa 0,0 l/m 0 min 2 min 85 W/m 25,7 km/h (4 Bft) 100,00 %
08.03.2020 14:14 10,6 C 9,4 C 8,9 C 80 % 1011,6 hPa 0,0 l/m 0 min 0 min 87 W/m 16,1 km/h (3 Bft) 100,00 %
08.03.2020 14:16 10,6 C 9,4 C 8,9 C 81 % 1011,6 hPa 0,0 l/m 0 min 2 min 80 W/m 22,5 km/h (4 Bft) 97,87 %
08.03.2020 14:18 10,6 C 8,9 C 8,9 C 81 % 1011,6 hPa 0,0 l/m 0 min 2 min 91 W/m 35,4 km/h (5 Bft) 100,00 %
08.03.2020 14:20 10,6 C 8,3 C 8,3 C 82 % 1011,5 hPa 0,0 l/m 0 min 2 min 103 W/m 29,0 km/h (5 Bft) 100,00 %
08.03.2020 14:22 10,6 C 7,8 C 7,8 C 82 % 1011,6 hPa 0,0 l/m 0 min 2 min 100 W/m 38,6 km/h (5 Bft) 97,83 %
08.03.2020 14:24 10,5 C 7,8 C 7,2 C 83 % 1011,6 hPa 0,2 l/m 0 min 2 min 100 W/m 35,4 km/h (5 Bft) 100,00 %
08.03.2020 14:26 10,4 C 7,8 C 7,8 C 84 % 1011,5 hPa 0,0 l/m 0 min 2 min 113 W/m 25,7 km/h (4 Bft) 100,00 %
08.03.2020 14:28 10,4 C 7,8 C 7,2 C 84 % 1011,5 hPa 0,0 l/m 0 min 2 min 124 W/m 32,2 km/h (5 Bft) 100,00 %
08.03.2020 14:30 10,3 C 7,8 C 7,2 C 84 % 1011,5 hPa 0,0 l/m 0 min 2 min 128 W/m 41,8 km/h (6 Bft) 100,00 %
08.03.2020 14:32 10,3 C 7,8 C 7,8 C 85 % 1011,5 hPa 0,0 l/m 0 min 2 min 128 W/m 35,4 km/h (5 Bft) 100,00 %
08.03.2020 14:34 10,2 C 8,3 C 7,8 C 85 % 1011,5 hPa 0,0 l/m 0 min 2 min 119 W/m 29,0 km/h (5 Bft) 100,00 %
08.03.2020 14:36 10,1 C 8,3 C 7,8 C 86 % 1011,5 hPa 0,0 l/m 0 min 2 min 132 W/m 19,3 km/h (3 Bft) 98,11 %
08.03.2020 14:38 10,1 C 8,3 C 7,8 C 86 % 1011,4 hPa 0,0 l/m 0 min 2 min 154 W/m 22,5 km/h (4 Bft) 100,00 %
08.03.2020 14:40 10,1 C 8,3 C 7,8 C 86 % 1011,4 hPa 0,0 l/m 0 min 2 min 157 W/m 22,5 km/h (4 Bft) 95,74 %
08.03.2020 14:42 10,1 C 8,3 C 7,8 C 87 % 1011,4 hPa 0,0 l/m 0 min 2 min 150 W/m 22,5 km/h (4 Bft) 97,87 %
08.03.2020 14:44 10,1 C 8,3 C 7,8 C 87 % 1011,4 hPa 0,0 l/m 0 min 2 min 128 W/m 19,3 km/h (3 Bft) 97,87 %
08.03.2020 14:46 10,1 C 8,3 C 7,8 C 87 % 1011,3 hPa 0,0 l/m 0 min 2 min 120 W/m 16,1 km/h (3 Bft) 97,83 %
08.03.2020 14:48 10,1 C 8,3 C 7,8 C 87 % 1011,4 hPa 0,0 l/m 0 min 2 min 115 W/m 22,5 km/h (4 Bft) 97,87 %
08.03.2020 14:50 10,1 C 7,8 C 7,8 C 88 % 1011,3 hPa 0,0 l/m 0 min 2 min 113 W/m 25,7 km/h (4 Bft) 97,87 %
08.03.2020 14:52 10,1 C 8,3 C 7,8 C 88 % 1011,3 hPa 0,0 l/m 0 min 2 min 105 W/m 16,1 km/h (3 Bft) 96,00 %
08.03.2020 14:54 10,1 C 8,3 C 7,8 C 88 % 1011,3 hPa 0,0 l/m 0 min 2 min 90 W/m 29,0 km/h (5 Bft) 97,87 %
08.03.2020 14:56 10,1 C 8,3 C 7,8 C 88 % 1011,3 hPa 0,0 l/m 0 min 2 min 102 W/m 25,7 km/h (4 Bft) 95,65 %
08.03.2020 14:58 10,1 C 8,3 C 7,8 C 88 % 1011,3 hPa 0,0 l/m 0 min 2 min 114 W/m 12,9 km/h (3 Bft) 98,00 %
08.03.2020 15:00 10,1 C 8,3 C 7,8 C 88 % 1011,3 hPa 0,0 l/m 0 min 2 min 120 W/m 16,1 km/h (3 Bft) 97,87 %
08.03.2020 15:02 10,1 C 8,3 C 7,8 C 88 % 1011,3 hPa 0,0 l/m 0 min 2 min 106 W/m 12,9 km/h (3 Bft) 97,87 %
08.03.2020 15:04 10,1 C 8,3 C 7,8 C 88 % 1011,3 hPa 0,0 l/m 0 min 2 min 102 W/m 19,3 km/h (3 Bft) 94,74 %
08.03.2020 15:06 10,1 C 7,8 C 7,8 C 88 % 1011,4 hPa 0,0 l/m 0 min 2 min 92 W/m 25,7 km/h (4 Bft) 95,74 %
08.03.2020 15:08 10,0 C 7,8 C 7,8 C 89 % 1011,3 hPa 0,0 l/m 0 min 2 min 68 W/m 12,9 km/h (3 Bft) 98,00 %
08.03.2020 15:10 10,0 C 7,8 C 7,8 C 89 % 1011,4 hPa 0,0 l/m 0 min 2 min 71 W/m 16,1 km/h (3 Bft) 97,83 %
08.03.2020 15:12 10,0 C 7,8 C 7,8 C 89 % 1011,4 hPa 0,2 l/m 0 min 2 min 89 W/m 19,3 km/h (3 Bft) 97,87 %
08.03.2020 15:14 10,0 C 7,8 C 7,8 C 89 % 1011,4 hPa 0,0 l/m 0 min 2 min 86 W/m 19,3 km/h (3 Bft) 95,74 %
08.03.2020 15:16 9,9 C 7,8 C 7,8 C 89 % 1011,4 hPa 0,0 l/m 0 min 2 min 70 W/m 16,1 km/h (3 Bft) 97,87 %
08.03.2020 15:18 9,9 C 7,8 C 7,2 C 89 % 1011,4 hPa 0,0 l/m 0 min 2 min 58 W/m 25,7 km/h (4 Bft) 97,87 %
08.03.2020 15:20 9,8 C 7,8 C 7,2 C 89 % 1011,4 hPa 0,0 l/m 0 min 2 min 67 W/m 32,2 km/h (5 Bft) 95,74 %
08.03.2020 15:22 9,8 C 7,8 C 7,2 C 90 % 1011,3 hPa 0,0 l/m 0 min 2 min 65 W/m 29,0 km/h (5 Bft) 97,83 %
08.03.2020 15:24 9,7 C 7,8 C 7,2 C 90 % 1011,3 hPa 0,0 l/m 0 min 2 min 73 W/m 29,0 km/h (5 Bft) 95,74 %
08.03.2020 15:26 9,7 C 7,8 C 7,2 C 90 % 1011,3 hPa 0,0 l/m 0 min 2 min 78 W/m 22,5 km/h (4 Bft) 95,74 %
08.03.2020 15:28 9,7 C 7,8 C 7,2 C 90 % 1011,3 hPa 0,0 l/m 0 min 2 min 65 W/m 29,0 km/h (5 Bft) 97,87 %
08.03.2020 15:30 9,6 C 7,8 C 7,2 C 90 % 1011,3 hPa 0,0 l/m 0 min 2 min 45 W/m 22,5 km/h (4 Bft) 97,87 %
08.03.2020 15:32 9,6 C 7,8 C 7,2 C 91 % 1011,3 hPa 0,0 l/m 0 min 2 min 43 W/m 25,7 km/h (4 Bft) 95,74 %
08.03.2020 15:34 9,6 C 7,8 C 7,2 C 91 % 1011,3 hPa 0,0 l/m 0 min 2 min 41 W/m 22,5 km/h (4 Bft) 93,62 %
08.03.2020 15:36 9,6 C 7,8 C 7,2 C 91 % 1011,3 hPa 0,0 l/m 0 min 2 min 34 W/m 6,4 km/h (2 Bft) 57,45 %
08.03.2020 15:38 9,5 C 7,8 C 7,2 C 91 % 1011,3 hPa 0,0 l/m 0 min 0 min 38 W/m 25,7 km/h (4 Bft) 93,62 %
08.03.2020 15:40 9,5 C 7,8 C 7,2 C 91 % 1011,3 hPa 0,0 l/m 0 min 2 min 28 W/m 16,1 km/h (3 Bft) 97,87 %
08.03.2020 15:42 9,5 C 7,8 C 7,2 C 91 % 1011,3 hPa 0,0 l/m 0 min 0 min 23 W/m 16,1 km/h (3 Bft) 95,65 %
08.03.2020 15:44 9,5 C 7,8 C 7,2 C 91 % 1011,4 hPa 0,0 l/m 0 min 2 min 29 W/m 12,9 km/h (3 Bft) 93,62 %
08.03.2020 15:46 9,4 C 7,8 C 7,2 C 92 % 1011,3 hPa 0,0 l/m 0 min 0 min 28 W/m 19,3 km/h (3 Bft) 97,67 %
08.03.2020 15:48 9,4 C 7,8 C 7,2 C 92 % 1011,3 hPa 0,0 l/m 0 min 0 min 30 W/m 12,9 km/h (3 Bft) 97,87 %
08.03.2020 15:50 9,4 C 7,8 C 7,2 C 92 % 1011,3 hPa 0,0 l/m 0 min 0 min 37 W/m 12,9 km/h (3 Bft) 94,00 %
08.03.2020 15:52 9,4 C 7,8 C 7,2 C 92 % 1011,2 hPa 0,0 l/m 0 min 0 min 55 W/m 12,9 km/h (3 Bft) 95,83 %
08.03.2020 15:54 9,4 C 7,8 C 7,2 C 92 % 1011,2 hPa 0,0 l/m 0 min 0 min 69 W/m 25,7 km/h (4 Bft) 95,65 %
08.03.2020 15:56 9,4 C 7,8 C 7,2 C 92 % 1011,2 hPa 0,0 l/m 0 min 2 min 80 W/m 25,7 km/h (4 Bft) 95,35 %
08.03.2020 15:58 9,4 C 7,8 C 7,2 C 92 % 1011,1 hPa 0,0 l/m 0 min 2 min 73 W/m 25,7 km/h (4 Bft) 95,74 %
08.03.2020 16:00 9,4 C 7,8 C 7,8 C 92 % 1011,1 hPa 0,0 l/m 0 min 0 min 78 W/m 29,0 km/h (5 Bft) 93,62 %
08.03.2020 16:02 9,4 C 7,8 C 7,2 C 92 % 1011,1 hPa 0,0 l/m 0 min 2 min 80 W/m 38,6 km/h (5 Bft) 94,00 %
08.03.2020 16:04 9,4 C 7,8 C 7,8 C 93 % 1011,1 hPa 0,0 l/m 0 min 2 min 81 W/m 25,7 km/h (4 Bft) 95,74 %
08.03.2020 16:06 9,4 C 7,8 C 7,8 C 93 % 1011,0 hPa 0,0 l/m 0 min 2 min 95 W/m 22,5 km/h (4 Bft) 95,74 %
08.03.2020 16:08 9,4 C 7,8 C 7,8 C 93 % 1011,0 hPa 0,2 l/m 0 min 2 min 84 W/m 25,7 km/h (4 Bft) 95,65 %
08.03.2020 16:10 9,4 C 7,8 C 7,8 C 93 % 1011,0 hPa 0,0 l/m 0 min 2 min 79 W/m 19,3 km/h (3 Bft) 95,74 %
08.03.2020 16:12 9,4 C 7,8 C 7,8 C 93 % 1011,0 hPa 0,0 l/m 0 min 2 min 59 W/m 25,7 km/h (4 Bft) 95,74 %
08.03.2020 16:14 9,4 C 7,8 C 7,2 C 93 % 1011,0 hPa 0,0 l/m 0 min 2 min 51 W/m 19,3 km/h (3 Bft) 95,74 %
08.03.2020 16:16 9,4 C 7,8 C 7,8 C 93 % 1011,0 hPa 0,0 l/m 0 min 2 min 74 W/m 25,7 km/h (4 Bft) 95,83 %
08.03.2020 16:18 9,4 C 7,8 C 7,8 C 93 % 1011,0 hPa 0,0 l/m 0 min 2 min 91 W/m 22,5 km/h (4 Bft) 91,30 %
08.03.2020 16:20 9,4 C 7,8 C 7,8 C 94 % 1010,9 hPa 0,0 l/m 0 min 2 min 72 W/m 25,7 km/h (4 Bft) 93,62 %
08.03.2020 16:22 9,4 C 7,8 C 7,2 C 94 % 1010,9 hPa 0,0 l/m 0 min 2 min 68 W/m 19,3 km/h (3 Bft) 95,74 %
08.03.2020 16:24 9,4 C 7,8 C 7,8 C 94 % 1010,9 hPa 0,0 l/m 0 min 2 min 70 W/m 19,3 km/h (3 Bft) 93,62 %
08.03.2020 16:26 9,4 C 7,8 C 7,8 C 94 % 1010,9 hPa 0,0 l/m 0 min 2 min 61 W/m 19,3 km/h (3 Bft) 95,74 %
08.03.2020 16:28 9,4 C 7,8 C 7,8 C 94 % 1010,9 hPa 0,0 l/m 0 min 2 min 63 W/m 25,7 km/h (4 Bft) 95,65 %
08.03.2020 16:30 9,4 C 7,8 C 7,8 C 94 % 1010,9 hPa 0,0 l/m 0 min 2 min 73 W/m 19,3 km/h (3 Bft) 97,73 %
08.03.2020 16:32 9,4 C 7,8 C 7,8 C 94 % 1010,9 hPa 0,2 l/m 0 min 2 min 78 W/m 25,7 km/h (4 Bft) 97,96 %
08.03.2020 16:34 9,4 C 7,8 C 7,8 C 94 % 1010,9 hPa 0,0 l/m 0 min 2 min 68 W/m 22,5 km/h (4 Bft) 97,87 %
08.03.2020 16:36 9,4 C 7,8 C 7,2 C 94 % 1010,8 hPa 0,0 l/m 0 min 2 min 59 W/m 38,6 km/h (5 Bft) 95,74 %
08.03.2020 16:38 9,4 C 7,8 C 7,2 C 94 % 1010,9 hPa 0,0 l/m 0 min 2 min 62 W/m 32,2 km/h (5 Bft) 100,00 %
08.03.2020 16:40 9,4 C 7,8 C 7,2 C 94 % 1010,8 hPa 0,0 l/m 0 min 2 min 47 W/m 22,5 km/h (4 Bft) 97,87 %
08.03.2020 16:42 9,3 C 7,8 C 7,2 C 94 % 1010,9 hPa 0,0 l/m 0 min 2 min 28 W/m 35,4 km/h (5 Bft) 97,83 %
08.03.2020 16:44 9,3 C 7,8 C 7,2 C 94 % 1010,9 hPa 0,0 l/m 0 min 2 min 21 W/m 29,0 km/h (5 Bft) 97,92 %
08.03.2020 16:46 9,3 C 7,8 C 7,2 C 94 % 1010,8 hPa 0,0 l/m 0 min 2 min 22 W/m 32,2 km/h (5 Bft) 100,00 %
08.03.2020 16:48 9,3 C 7,8 C 7,2 C 94 % 1010,8 hPa 0,0 l/m 0 min 2 min 37 W/m 32,2 km/h (5 Bft) 97,87 %
08.03.2020 16:50 9,3 C 7,8 C 7,2 C 94 % 1010,7 hPa 0,0 l/m 0 min 2 min 51 W/m 19,3 km/h (3 Bft) 100,00 %
08.03.2020 16:52 9,3 C 7,8 C 7,2 C 94 % 1010,7 hPa 0,0 l/m 0 min 2 min 67 W/m 29,0 km/h (5 Bft) 100,00 %
08.03.2020 16:54 9,2 C 7,8 C 7,2 C 94 % 1010,6 hPa 0,0 l/m 0 min 2 min 87 W/m 16,1 km/h (3 Bft) 100,00 %
08.03.2020 16:56 9,2 C 7,8 C 7,8 C 95 % 1010,7 hPa 0,2 l/m 0 min 2 min 102 W/m 22,5 km/h (4 Bft) 100,00 %
08.03.2020 16:58 9,2 C 7,8 C 7,8 C 95 % 1010,6 hPa 0,0 l/m 2 min 2 min 119 W/m 25,7 km/h (4 Bft) 100,00 %
08.03.2020 17:00 9,2 C 7,8 C 7,8 C 95 % 1010,6 hPa 0,0 l/m 2 min 2 min 108 W/m 22,5 km/h (4 Bft) 100,00 %
08.03.2020 17:02 9,3 C 7,8 C 7,8 C 95 % 1010,6 hPa 0,0 l/m 0 min 2 min 88 W/m 32,2 km/h (5 Bft) 100,00 %
08.03.2020 17:04 9,2 C 7,8 C 7,8 C 95 % 1010,5 hPa 0,0 l/m 0 min 2 min 87 W/m 22,5 km/h (4 Bft) 95,74 %
08.03.2020 17:06 9,3 C 8,3 C 7,8 C 95 % 1010,5 hPa 0,0 l/m 0 min 2 min 84 W/m 22,5 km/h (4 Bft) 100,00 %
08.03.2020 17:08 9,2 C 8,3 C 7,8 C 95 % 1010,6 hPa 0,0 l/m 0 min 2 min 89 W/m 25,7 km/h (4 Bft) 100,00 %
08.03.2020 17:10 9,2 C 8,3 C 7,8 C 95 % 1010,6 hPa 0,0 l/m 2 min 2 min 100 W/m 19,3 km/h (3 Bft) 100,00 %
08.03.2020 17:12 9,2 C 8,3 C 7,8 C 95 % 1010,6 hPa 0,0 l/m 2 min 2 min 100 W/m 19,3 km/h (3 Bft) 100,00 %
08.03.2020 17:14 9,3 C 8,3 C 7,8 C 95 % 1010,5 hPa 0,0 l/m 2 min 2 min 94 W/m 25,7 km/h (4 Bft) 97,83 %
08.03.2020 17:16 9,3 C 8,3 C 7,8 C 95 % 1010,6 hPa 0,0 l/m 0 min 2 min 80 W/m 19,3 km/h (3 Bft) 100,00 %
08.03.2020 17:18 9,3 C 8,3 C 7,8 C 95 % 1010,6 hPa 0,0 l/m 0 min 2 min 71 W/m 22,5 km/h (4 Bft) 100,00 %
08.03.2020 17:20 9,3 C 8,3 C 7,8 C 95 % 1010,5 hPa 0,0 l/m 0 min 2 min 68 W/m 29,0 km/h (5 Bft) 100,00 %
08.03.2020 17:22 9,3 C 8,3 C 7,8 C 95 % 1010,5 hPa 0,0 l/m 0 min 2 min 58 W/m 19,3 km/h (3 Bft) 97,87 %
08.03.2020 17:24 9,3 C 8,3 C 7,8 C 95 % 1010,5 hPa 0,0 l/m 0 min 2 min 50 W/m 22,5 km/h (4 Bft) 100,00 %
08.03.2020 17:26 9,3 C 8,3 C 7,8 C 95 % 1010,4 hPa 0,0 l/m 0 min 2 min 59 W/m 25,7 km/h (4 Bft) 100,00 %
08.03.2020 17:28 9,3 C 8,3 C 7,8 C 95 % 1010,4 hPa 0,0 l/m 0 min 2 min 70 W/m 22,5 km/h (4 Bft) 100,00 %
08.03.2020 17:30 9,3 C 8,3 C 7,8 C 95 % 1010,4 hPa 0,0 l/m 2 min 2 min 70 W/m 22,5 km/h (4 Bft) 100,00 %
08.03.2020 17:32 9,3 C 8,3 C 7,8 C 95 % 1010,3 hPa 0,0 l/m 0 min 2 min 55 W/m 25,7 km/h (4 Bft) 97,92 %
08.03.2020 17:34 9,3 C 8,3 C 7,8 C 95 % 1010,2 hPa 0,0 l/m 0 min 2 min 40 W/m 12,9 km/h (3 Bft) 100,00 %
08.03.2020 17:36 9,3 C 8,3 C 7,2 C 95 % 1010,2 hPa 0,0 l/m 0 min 2 min 24 W/m 22,5 km/h (4 Bft) 100,00 %
08.03.2020 17:38 9,3 C 7,8 C 7,2 C 95 % 1010,2 hPa 0,0 l/m 0 min 0 min 22 W/m 29,0 km/h (5 Bft) 97,87 %
08.03.2020 17:40 9,2 C 7,8 C 7,2 C 95 % 1010,2 hPa 0,0 l/m 0 min 0 min 22 W/m 16,1 km/h (3 Bft) 100,00 %
08.03.2020 17:42 9,2 C 7,8 C 7,2 C 95 % 1010,1 hPa 0,0 l/m 0 min 0 min 21 W/m 22,5 km/h (4 Bft) 95,74 %
08.03.2020 17:44 9,2 C 7,8 C 7,2 C 95 % 1010,2 hPa 0,0 l/m 0 min 0 min 19 W/m 19,3 km/h (3 Bft) 97,87 %
08.03.2020 17:46 9,2 C 7,8 C 7,2 C 95 % 1010,1 hPa 0,0 l/m 0 min 0 min 19 W/m 29,0 km/h (5 Bft) 100,00 %
08.03.2020 17:48 9,2 C 7,8 C 7,2 C 95 % 1010,1 hPa 0,0 l/m 0 min 0 min 18 W/m 29,0 km/h (5 Bft) 100,00 %
08.03.2020 17:50 9,2 C 7,8 C 7,2 C 95 % 1010,1 hPa 0,0 l/m 0 min 0 min 16 W/m 19,3 km/h (3 Bft) 100,00 %
08.03.2020 17:52 9,2 C 7,8 C 7,2 C 95 % 1010,1 hPa 0,0 l/m 0 min 0 min 14 W/m 22,5 km/h (4 Bft) 100,00 %
08.03.2020 17:54 9,2 C 7,8 C 7,2 C 95 % 1010,1 hPa 0,0 l/m 0 min 0 min 14 W/m 16,1 km/h (3 Bft) 100,00 %
08.03.2020 17:56 9,2 C 7,8 C 7,2 C 95 % 1010,1 hPa 0,0 l/m 0 min 0 min 13 W/m 19,3 km/h (3 Bft) 100,00 %
08.03.2020 17:58 9,2 C 7,8 C 7,2 C 95 % 1010,2 hPa 0,0 l/m 0 min 0 min 11 W/m 25,7 km/h (4 Bft) 100,00 %
08.03.2020 18:00 9,2 C 7,8 C 7,2 C 95 % 1010,2 hPa 0,0 l/m 0 min 0 min 8 W/m 16,1 km/h (3 Bft) 100,00 %
08.03.2020 18:02 9,2 C 7,8 C 7,2 C 95 % 1010,2 hPa 0,0 l/m 0 min 0 min 7 W/m 12,9 km/h (3 Bft) 100,00 %
08.03.2020 18:04 9,2 C 7,8 C 7,2 C 95 % 1010,2 hPa 0,0 l/m 0 min 0 min 5 W/m 12,9 km/h (3 Bft) 97,83 %
08.03.2020 18:08 9,2 C 7,8 C 7,2 C 95 % 1010,2 hPa 0,0 l/m 0 min 0 min 1 W/m 19,3 km/h (3 Bft) 100,00 %
08.03.2020 18:10 9,2 C 7,8 C 7,2 C 95 % 1010,2 hPa 0,0 l/m 0 min 2 min 0 W/m 25,7 km/h (4 Bft) 100,00 %
08.03.2020 18:12 9,2 C 7,8 C 7,2 C 95 % 1010,2 hPa 0,0 l/m 0 min 2 min 0 W/m 19,3 km/h (3 Bft) 100,00 %
08.03.2020 18:14 9,2 C 7,8 C 7,2 C 95 % 1010,1 hPa 0,0 l/m 0 min 2 min 2 W/m 25,7 km/h (4 Bft) 97,87 %
08.03.2020 18:16 9,2 C 7,8 C 7,2 C 95 % 1010,1 hPa 0,0 l/m 0 min 2 min 2 W/m 16,1 km/h (3 Bft) 97,83 %
08.03.2020 18:18 9,2 C 7,8 C 7,2 C 95 % 1010,2 hPa 0,0 l/m 0 min 2 min 0 W/m 16,1 km/h (3 Bft) 97,87 %
08.03.2020 18:20 9,2 C 7,8 C 7,2 C 95 % 1010,1 hPa 0,0 l/m 0 min 2 min 0 W/m 19,3 km/h (3 Bft) 97,87 %
08.03.2020 18:22 9,2 C 7,8 C 7,2 C 94 % 1010,0 hPa 0,0 l/m 0 min 2 min 0 W/m 12,9 km/h (3 Bft) 95,74 %
08.03.2020 18:24 9,2 C 7,8 C 7,2 C 94 % 1010,0 hPa 0,0 l/m 0 min 2 min 0 W/m 12,9 km/h (3 Bft) 97,87 %
08.03.2020 18:26 9,2 C 7,8 C 7,2 C 94 % 1010,0 hPa 0,0 l/m 0 min 2 min 0 W/m 16,1 km/h (3 Bft) 95,74 %
08.03.2020 18:28 9,2 C 7,8 C 7,2 C 95 % 1010,0 hPa 0,0 l/m 0 min 2 min 0 W/m 19,3 km/h (3 Bft) 95,74 %
08.03.2020 18:30 9,3 C 7,8 C 7,2 C 95 % 1010,0 hPa 0,0 l/m 0 min 0 min 0 W/m 12,9 km/h (3 Bft) 93,62 %
08.03.2020 18:32 9,2 C 7,8 C 7,2 C 95 % 1010,0 hPa 0,0 l/m 0 min 0 min 0 W/m 19,3 km/h (3 Bft) 93,62 %
08.03.2020 18:34 9,2 C 7,8 C 7,2 C 95 % 1009,9 hPa 0,2 l/m 0 min 2 min 0 W/m 19,3 km/h (3 Bft) 89,36 %
08.03.2020 18:36 9,2 C 7,8 C 7,2 C 95 % 1009,9 hPa 0,0 l/m 0 min 2 min 0 W/m 19,3 km/h (3 Bft) 93,48 %
08.03.2020 18:38 9,2 C 7,8 C 7,2 C 95 % 1009,9 hPa 0,0 l/m 0 min 2 min 0 W/m 16,1 km/h (3 Bft) 91,49 %
08.03.2020 18:40 9,2 C 7,8 C 7,2 C 95 % 1010,0 hPa 0,0 l/m 0 min 2 min 0 W/m 12,9 km/h (3 Bft) 93,02 %
08.03.2020 18:42 9,2 C 7,8 C 7,2 C 95 % 1010,0 hPa 0,0 l/m 0 min 2 min 0 W/m 19,3 km/h (3 Bft) 93,62 %
08.03.2020 18:44 9,2 C 7,8 C 7,2 C 95 % 1009,9 hPa 0,0 l/m 0 min 2 min 0 W/m 12,9 km/h (3 Bft) 94,00 %
08.03.2020 18:46 9,2 C 7,8 C 7,2 C 95 % 1009,9 hPa 0,0 l/m 0 min 2 min 0 W/m 12,9 km/h (3 Bft) 93,75 %
08.03.2020 18:48 9,2 C 7,8 C 7,2 C 95 % 1009,9 hPa 0,0 l/m 0 min 2 min 0 W/m 12,9 km/h (3 Bft) 89,13 %
08.03.2020 18:50 9,2 C 7,8 C 7,2 C 95 % 1010,0 hPa 0,0 l/m 0 min 2 min 0 W/m 0,0 km/h (0 Bft) 93,62 %
08.03.2020 18:52 9,2 C 7,8 C 7,2 C 95 % 1009,9 hPa 0,0 l/m 0 min 2 min 0 W/m 0,0 km/h (0 Bft) 93,62 %
08.03.2020 18:54 9,2 C 7,8 C 7,2 C 95 % 1009,9 hPa 0,0 l/m 0 min 2 min 0 W/m 29,0 km/h (5 Bft) 91,49 %
08.03.2020 18:56 9,2 C 7,8 C 7,2 C 95 % 1009,9 hPa 0,0 l/m 0 min 2 min 0 W/m 22,5 km/h (4 Bft) 93,02 %
08.03.2020 18:58 9,2 C 7,8 C 7,2 C 95 % 1010,0 hPa 0,0 l/m 0 min 2 min 0 W/m 19,3 km/h (3 Bft) 94,00 %
08.03.2020 19:00 9,2 C 7,8 C 7,2 C 95 % 1009,9 hPa 0,0 l/m 0 min 2 min 0 W/m 19,3 km/h (3 Bft) 93,62 %
08.03.2020 19:02 9,2 C 7,8 C 7,2 C 95 % 1009,9 hPa 0,0 l/m 0 min 2 min 0 W/m 25,7 km/h (4 Bft) 89,36 %
08.03.2020 19:04 9,2 C 7,8 C 7,2 C 95 % 1009,9 hPa 0,0 l/m 0 min 2 min 0 W/m 16,1 km/h (3 Bft) 91,49 %
08.03.2020 19:06 9,2 C 7,8 C 7,2 C 95 % 1009,8 hPa 0,0 l/m 0 min 0 min 0 W/m 12,9 km/h (3 Bft) 93,62 %
08.03.2020 19:08 9,2 C 7,8 C 7,2 C 95 % 1009,8 hPa 0,0 l/m 0 min 0 min 0 W/m 12,9 km/h (3 Bft) 89,36 %
08.03.2020 19:10 9,2 C 7,8 C 7,2 C 95 % 1009,8 hPa 0,0 l/m 0 min 0 min 0 W/m 12,9 km/h (3 Bft) 93,62 %
08.03.2020 19:12 9,1 C 7,8 C 7,2 C 95 % 1009,8 hPa 0,0 l/m 0 min 2 min 0 W/m 16,1 km/h (3 Bft) 89,13 %
08.03.2020 19:14 9,1 C 7,8 C 7,2 C 95 % 1009,8 hPa 0,0 l/m 0 min 2 min 0 W/m 3,2 km/h (1 Bft) 95,74 %
08.03.2020 19:16 9,1 C 7,8 C 7,2 C 95 % 1009,7 hPa 0,0 l/m 0 min 0 min 0 W/m 12,9 km/h (3 Bft) 95,74 %
08.03.2020 19:18 9,1 C 7,8 C 7,2 C 95 % 1009,7 hPa 0,0 l/m 0 min 2 min 0 W/m 12,9 km/h (3 Bft) 97,87 %
08.03.2020 19:20 9,1 C 7,8 C 7,2 C 95 % 1009,6 hPa 0,0 l/m 0 min 0 min 0 W/m 12,9 km/h (3 Bft) 100,00 %
08.03.2020 19:22 9,1 C 7,8 C 7,2 C 95 % 1009,6 hPa 0,0 l/m 0 min 0 min 0 W/m 0,0 km/h (0 Bft) 97,83 %
08.03.2020 19:24 9,1 C 7,8 C 7,2 C 95 % 1009,5 hPa 0,0 l/m 0 min 0 min 0 W/m 6,4 km/h (2 Bft) 97,87 %
08.03.2020 19:26 9,1 C 7,8 C 7,2 C 95 % 1009,5 hPa 0,0 l/m 0 min 0 min 0 W/m 12,9 km/h (3 Bft) 95,74 %
08.03.2020 19:28 9,1 C 7,8 C 7,2 C 95 % 1009,5 hPa 0,0 l/m 0 min 0 min 0 W/m 12,9 km/h (3 Bft) 100,00 %
08.03.2020 19:30 9,1 C 7,8 C 7,2 C 95 % 1009,4 hPa 0,0 l/m 0 min 0 min 0 W/m 12,9 km/h (3 Bft) 97,87 %
08.03.2020 19:32 9,1 C 7,8 C 7,2 C 95 % 1009,4 hPa 0,0 l/m 0 min 0 min 0 W/m 16,1 km/h (3 Bft) 100,00 %
08.03.2020 19:34 9,0 C 7,8 C 7,2 C 95 % 1009,4 hPa 0,0 l/m 0 min 0 min 0 W/m 12,9 km/h (3 Bft) 95,65 %
08.03.2020 19:36 9,0 C 7,8 C 7,2 C 95 % 1009,4 hPa 0,0 l/m 0 min 0 min 0 W/m 12,9 km/h (3 Bft) 100,00 %
08.03.2020 19:38 9,0 C 7,8 C 7,2 C 95 % 1009,4 hPa 0,0 l/m 0 min 0 min 0 W/m 3,2 km/h (1 Bft) 100,00 %
08.03.2020 19:40 9,0 C 7,8 C 7,2 C 96 % 1009,4 hPa 0,0 l/m 0 min 0 min 0 W/m 0,0 km/h (0 Bft) 100,00 %
08.03.2020 19:42 9,0 C 7,8 C 7,2 C 96 % 1009,3 hPa 0,0 l/m 0 min 0 min 0 W/m 3,2 km/h (1 Bft) 97,87 %
08.03.2020 19:44 9,0 C 7,8 C 7,2 C 96 % 1009,3 hPa 0,2 l/m 0 min 0 min 0 W/m 6,4 km/h (2 Bft) 100,00 %
08.03.2020 19:46 8,9 C 7,2 C 7,2 C 95 % 1009,2 hPa 0,0 l/m 0 min 0 min 0 W/m 3,2 km/h (1 Bft) 100,00 %
08.03.2020 19:48 8,9 C 7,2 C 7,2 C 95 % 1009,2 hPa 0,0 l/m 0 min 0 min 0 W/m 12,9 km/h (3 Bft) 100,00 %
08.03.2020 19:50 8,9 C 7,2 C 7,2 C 95 % 1009,2 hPa 0,0 l/m 0 min 0 min 0 W/m 19,3 km/h (3 Bft) 97,87 %
08.03.2020 19:52 8,9 C 7,2 C 7,2 C 96 % 1009,2 hPa 0,0 l/m 0 min 0 min 0 W/m 19,3 km/h (3 Bft) 95,74 %
08.03.2020 19:54 8,9 C 7,2 C 7,2 C 96 % 1009,2 hPa 0,0 l/m 0 min 0 min 0 W/m 12,9 km/h (3 Bft) 100,00 %
08.03.2020 19:56 8,9 C 7,2 C 7,2 C 96 % 1009,2 hPa 0,0 l/m 0 min 0 min 0 W/m 12,9 km/h (3 Bft) 100,00 %
08.03.2020 19:58 8,9 C 7,2 C 7,2 C 96 % 1009,1 hPa 0,0 l/m 0 min 2 min 0 W/m 6,4 km/h (2 Bft) 100,00 %
08.03.2020 20:00 8,9 C 7,2 C 7,2 C 96 % 1009,1 hPa 0,0 l/m 0 min 0 min 0 W/m 6,4 km/h (2 Bft) 100,00 %
08.03.2020 20:02 8,9 C 7,2 C 7,2 C 96 % 1009,2 hPa 0,0 l/m 0 min 0 min 0 W/m 16,1 km/h (3 Bft) 97,87 %
08.03.2020 20:04 8,8 C 7,2 C 7,2 C 96 % 1009,2 hPa 0,0 l/m 0 min 0 min 0 W/m 6,4 km/h (2 Bft) 100,00 %
08.03.2020 20:06 8,8 C 7,2 C 7,2 C 96 % 1009,1 hPa 0,0 l/m 0 min 0 min 0 W/m 12,9 km/h (3 Bft) 100,00 %
08.03.2020 20:08 8,8 C 7,2 C 7,2 C 96 % 1009,1 hPa 0,0 l/m 0 min 2 min 0 W/m 12,9 km/h (3 Bft) 100,00 %
08.03.2020 20:10 8,8 C 7,2 C 7,2 C 96 % 1009,2 hPa 0,0 l/m 0 min 2 min 0 W/m 6,4 km/h (2 Bft) 100,00 %
08.03.2020 20:12 8,8 C 7,2 C 7,2 C 96 % 1009,6 hPa 0,2 l/m 0 min 2 min 0 W/m 16,1 km/h (3 Bft) 100,00 %
08.03.2020 20:14 8,8 C 7,2 C 7,2 C 96 % 1009,7 hPa 0,2 l/m 0 min 2 min 0 W/m 19,3 km/h (3 Bft) 100,00 %
08.03.2020 20:16 8,8 C 7,2 C 6,7 C 96 % 1009,7 hPa 0,2 l/m 0 min 2 min 0 W/m 19,3 km/h (3 Bft) 100,00 %
08.03.2020 20:18 8,7 C 7,2 C 6,7 C 96 % 1009,7 hPa 0,2 l/m 0 min 2 min 0 W/m 9,7 km/h (2 Bft) 97,87 %
08.03.2020 20:20 8,7 C 7,2 C 6,7 C 96 % 1009,7 hPa 0,0 l/m 0 min 2 min 0 W/m 12,9 km/h (3 Bft) 97,83 %
08.03.2020 20:22 8,6 C 6,7 C 6,7 C 96 % 1009,7 hPa 0,2 l/m 0 min 2 min 0 W/m 16,1 km/h (3 Bft) 97,87 %
08.03.2020 20:24 8,6 C 6,7 C 6,7 C 96 % 1009,7 hPa 0,0 l/m 0 min 2 min 0 W/m 16,1 km/h (3 Bft) 100,00 %
08.03.2020 20:26 8,5 C 6,7 C 6,7 C 96 % 1009,7 hPa 0,0 l/m 0 min 2 min 0 W/m 16,1 km/h (3 Bft) 93,62 %
08.03.2020 20:28 8,5 C 6,7 C 6,7 C 96 % 1009,6 hPa 0,0 l/m 0 min 2 min 0 W/m 6,4 km/h (2 Bft) 100,00 %
08.03.2020 20:30 8,4 C 6,7 C 6,7 C 96 % 1009,7 hPa 0,0 l/m 0 min 2 min 0 W/m 6,4 km/h (2 Bft) 100,00 %
08.03.2020 20:32 8,4 C 6,7 C 6,7 C 96 % 1009,7 hPa 0,2 l/m 0 min 2 min 0 W/m 16,1 km/h (3 Bft) 100,00 %
08.03.2020 20:34 8,4 C 6,7 C 6,7 C 96 % 1009,7 hPa 0,0 l/m 0 min 2 min 0 W/m 9,7 km/h (2 Bft) 97,87 %
08.03.2020 20:36 8,3 C 6,7 C 6,7 C 96 % 1009,8 hPa 0,0 l/m 0 min 2 min 0 W/m 12,9 km/h (3 Bft) 100,00 %
08.03.2020 20:38 8,3 C 6,7 C 6,7 C 96 % 1009,7 hPa 0,0 l/m 0 min 2 min 0 W/m 9,7 km/h (2 Bft) 100,00 %
08.03.2020 20:40 8,3 C 6,7 C 6,7 C 96 % 1009,7 hPa 0,2 l/m 0 min 2 min 0 W/m 9,7 km/h (2 Bft) 100,00 %
08.03.2020 20:42 8,2 C 6,7 C 6,7 C 96 % 1009,6 hPa 0,0 l/m 0 min 2 min 0 W/m 12,9 km/h (3 Bft) 100,00 %
08.03.2020 20:44 8,2 C 6,7 C 6,7 C 96 % 1009,5 hPa 0,0 l/m 0 min 2 min 0 W/m 3,2 km/h (1 Bft) 100,00 %
08.03.2020 20:46 8,2 C 6,7 C 6,7 C 96 % 1009,5 hPa 0,0 l/m 0 min 2 min 0 W/m 6,4 km/h (2 Bft) 100,00 %
08.03.2020 20:48 8,2 C 6,7 C 6,1 C 96 % 1009,4 hPa 0,0 l/m 0 min 2 min 0 W/m 12,9 km/h (3 Bft) 97,87 %
08.03.2020 20:50 8,2 C 6,7 C 6,1 C 96 % 1009,3 hPa 0,2 l/m 0 min 2 min 0 W/m 3,2 km/h (1 Bft) 100,00 %
08.03.2020 20:52 8,1 C 6,7 C 6,1 C 96 % 1009,3 hPa 0,0 l/m 0 min 2 min 0 W/m 0,0 km/h (0 Bft) 100,00 %
08.03.2020 20:54 8,1 C 6,7 C 6,1 C 96 % 1009,3 hPa 0,0 l/m 0 min 2 min 0 W/m 0,0 km/h (0 Bft) 97,87 %
08.03.2020 20:56 8,1 C 6,7 C 6,1 C 96 % 1009,2 hPa 0,0 l/m 0 min 2 min 0 W/m 0,0 km/h (0 Bft) 100,00 %
08.03.2020 20:58 8,1 C 6,7 C 6,1 C 96 % 1009,1 hPa 0,0 l/m 0 min 2 min 0 W/m 0,0 km/h (0 Bft) 100,00 %
08.03.2020 21:00 8,1 C 6,7 C 6,1 C 96 % 1009,0 hPa 0,2 l/m 0 min 2 min 0 W/m 0,0 km/h (0 Bft) 100,00 %
08.03.2020 21:02 8,1 C 6,7 C 6,1 C 96 % 1008,8 hPa 0,0 l/m 0 min 2 min 0 W/m 0,0 km/h (0 Bft) 100,00 %
08.03.2020 21:04 8,1 C 6,7 C 6,1 C 96 % 1008,7 hPa 0,0 l/m 0 min 2 min 0 W/m 0,0 km/h (0 Bft) 100,00 %
08.03.2020 21:06 8,0 C 6,7 C 6,1 C 96 % 1008,5 hPa 0,0 l/m 0 min 2 min 0 W/m 0,0 km/h (0 Bft) 97,87 %
08.03.2020 21:08 8,0 C 6,7 C 6,1 C 96 % 1008,4 hPa 0,0 l/m 0 min 2 min 0 W/m 0,0 km/h (0 Bft) 95,65 %
08.03.2020 21:10 8,0 C 6,7 C 6,1 C 96 % 1008,4 hPa 0,0 l/m 0 min 0 min 0 W/m 0,0 km/h (0 Bft) 97,87 %
08.03.2020 21:12 8,0 C 6,7 C 6,1 C 96 % 1008,5 hPa 0,0 l/m 0 min 0 min 0 W/m 0,0 km/h (0 Bft) 97,87 %
08.03.2020 21:14 7,9 C 6,7 C 6,1 C 96 % 1008,6 hPa 0,0 l/m 0 min 0 min 0 W/m 0,0 km/h (0 Bft) 97,87 %
08.03.2020 21:16 7,9 C 6,7 C 6,1 C 96 % 1008,5 hPa 0,0 l/m 0 min 0 min 0 W/m 6,4 km/h (2 Bft) 93,62 %
08.03.2020 21:18 7,9 C 6,7 C 6,1 C 96 % 1008,6 hPa 0,0 l/m 0 min 0 min 0 W/m 6,4 km/h (2 Bft) 95,74 %
08.03.2020 21:20 7,9 C 6,7 C 6,1 C 96 % 1008,7 hPa 0,0 l/m 0 min 0 min 0 W/m 0,0 km/h (0 Bft) 93,48 %
08.03.2020 21:22 7,9 C 6,7 C 6,1 C 96 % 1008,7 hPa 0,0 l/m 0 min 0 min 0 W/m 0,0 km/h (0 Bft) 95,74 %
08.03.2020 21:24 7,9 C 6,7 C 6,1 C 96 % 1008,7 hPa 0,0 l/m 0 min 0 min 0 W/m 0,0 km/h (0 Bft) 93,62 %
08.03.2020 21:26 7,9 C 6,7 C 6,1 C 96 % 1008,7 hPa 0,0 l/m 0 min 0 min 0 W/m 0,0 km/h (0 Bft) 93,62 %
08.03.2020 21:28 7,9 C 6,7 C 6,1 C 96 % 1008,8 hPa 0,0 l/m 0 min 0 min 0 W/m 0,0 km/h (0 Bft) 95,74 %
08.03.2020 21:30 7,8 C 6,7 C 6,1 C 96 % 1008,8 hPa 0,0 l/m 0 min 0 min 0 W/m 6,4 km/h (2 Bft) 89,13 %
08.03.2020 21:32 7,8 C 6,7 C 6,1 C 97 % 1008,8 hPa 0,0 l/m 0 min 0 min 0 W/m 6,4 km/h (2 Bft) 95,74 %
08.03.2020 21:34 7,8 C 6,7 C 6,1 C 97 % 1008,8 hPa 0,0 l/m 0 min 0 min 0 W/m 0,0 km/h (0 Bft) 95,74 %
08.03.2020 21:36 7,8 C 6,7 C 6,1 C 97 % 1008,9 hPa 0,0 l/m 0 min 0 min 0 W/m 0,0 km/h (0 Bft) 95,74 %
08.03.2020 21:38 7,8 C 6,7 C 6,1 C 97 % 1008,9 hPa 0,0 l/m 0 min 0 min 0 W/m 0,0 km/h (0 Bft) 93,62 %
08.03.2020 21:40 7,8 C 6,7 C 6,1 C 97 % 1008,9 hPa 0,0 l/m 0 min 0 min 0 W/m 3,2 km/h (1 Bft) 95,74 %
08.03.2020 21:42 7,8 C 6,7 C 6,1 C 97 % 1009,0 hPa 0,0 l/m 0 min 0 min 0 W/m 0,0 km/h (0 Bft) 95,65 %
08.03.2020 21:44 7,8 C 6,7 C 6,1 C 97 % 1009,0 hPa 0,0 l/m 0 min 0 min 0 W/m 0,0 km/h (0 Bft) 95,74 %
08.03.2020 21:46 7,8 C 6,7 C 6,1 C 97 % 1009,0 hPa 0,0 l/m 0 min 2 min 0 W/m 6,4 km/h (2 Bft) 95,74 %
08.03.2020 21:48 7,8 C 6,7 C 6,1 C 97 % 1009,0 hPa 0,0 l/m 0 min 0 min 0 W/m 6,4 km/h (2 Bft) 93,62 %
08.03.2020 21:50 7,8 C 6,7 C 6,1 C 97 % 1009,0 hPa 0,0 l/m 0 min 0 min 0 W/m 12,9 km/h (3 Bft) 95,74 %
08.03.2020 21:52 7,7 C 6,7 C 6,1 C 97 % 1009,0 hPa 0,0 l/m 0 min 0 min 0 W/m 19,3 km/h (3 Bft) 97,87 %
08.03.2020 21:54 7,7 C 6,7 C 6,1 C 97 % 1009,0 hPa 0,0 l/m 0 min 2 min 0 W/m 12,9 km/h (3 Bft) 97,83 %
08.03.2020 21:56 7,7 C 6,7 C 6,1 C 97 % 1009,1 hPa 0,0 l/m 0 min 2 min 0 W/m 0,0 km/h (0 Bft) 95,74 %
08.03.2020 21:58 7,7 C 6,7 C 6,1 C 97 % 1009,1 hPa 0,0 l/m 0 min 2 min 0 W/m 22,5 km/h (4 Bft) 95,74 %
08.03.2020 22:00 7,7 C 6,7 C 6,1 C 97 % 1009,0 hPa 0,0 l/m 0 min 2 min 0 W/m 0,0 km/h (0 Bft) 95,74 %
08.03.2020 22:02 7,7 C 6,7 C 6,1 C 97 % 1009,0 hPa 0,0 l/m 0 min 0 min 0 W/m 19,3 km/h (3 Bft) 95,74 %
08.03.2020 22:04 7,7 C 6,7 C 6,1 C 97 % 1009,0 hPa 0,0 l/m 0 min 0 min 0 W/m 3,2 km/h (1 Bft) 97,83 %
08.03.2020 22:06 7,7 C 6,7 C 6,1 C 97 % 1009,0 hPa 0,0 l/m 0 min 2 min 0 W/m 0,0 km/h (0 Bft) 95,74 %
08.03.2020 22:08 7,6 C 6,7 C 6,1 C 97 % 1009,0 hPa 0,0 l/m 0 min 2 min 0 W/m 0,0 km/h (0 Bft) 97,87 %
08.03.2020 22:10 7,6 C 6,7 C 6,1 C 97 % 1009,1 hPa 0,0 l/m 0 min 2 min 0 W/m 6,4 km/h (2 Bft) 97,87 %
08.03.2020 22:12 7,6 C 6,7 C 6,1 C 97 % 1009,1 hPa 0,0 l/m 0 min 2 min 0 W/m 12,9 km/h (3 Bft) 97,87 %
08.03.2020 22:14 7,6 C 6,1 C 6,1 C 97 % 1009,0 hPa 0,0 l/m 0 min 2 min 0 W/m 3,2 km/h (1 Bft) 97,87 %
08.03.2020 22:16 7,6 C 6,1 C 6,1 C 97 % 1009,1 hPa 0,0 l/m 0 min 2 min 0 W/m 3,2 km/h (1 Bft) 95,65 %
08.03.2020 22:18 7,6 C 6,1 C 6,1 C 97 % 1009,1 hPa 0,0 l/m 0 min 2 min 0 W/m 3,2 km/h (1 Bft) 95,74 %
08.03.2020 22:20 7,6 C 6,1 C 6,1 C 97 % 1009,1 hPa 0,0 l/m 0 min 2 min 0 W/m 3,2 km/h (1 Bft) 97,87 %
08.03.2020 22:22 7,6 C 6,1 C 6,1 C 97 % 1009,1 hPa 0,0 l/m 0 min 0 min 0 W/m 3,2 km/h (1 Bft) 97,87 %
08.03.2020 22:24 7,6 C 6,1 C 6,1 C 97 % 1009,1 hPa 0,0 l/m 0 min 0 min 0 W/m 12,9 km/h (3 Bft) 97,87 %
08.03.2020 22:26 7,5 C 6,1 C 6,1 C 97 % 1009,2 hPa 0,0 l/m 0 min 2 min 0 W/m 6,4 km/h (2 Bft) 97,87 %
08.03.2020 22:28 7,5 C 6,1 C 6,1 C 97 % 1009,1 hPa 0,0 l/m 0 min 2 min 0 W/m 16,1 km/h (3 Bft) 97,83 %
08.03.2020 22:30 7,5 C 6,1 C 6,1 C 97 % 1009,1 hPa 0,0 l/m 0 min 2 min 0 W/m 0,0 km/h (0 Bft) 97,87 %
08.03.2020 22:32 7,5 C 6,1 C 6,1 C 97 % 1009,1 hPa 0,0 l/m 0 min 2 min 0 W/m 6,4 km/h (2 Bft) 97,87 %
08.03.2020 22:34 7,4 C 6,1 C 6,1 C 97 % 1009,1 hPa 0,0 l/m 0 min 2 min 0 W/m 9,7 km/h (2 Bft) 97,87 %
08.03.2020 22:36 7,4 C 6,1 C 5,6 C 97 % 1009,1 hPa 0,0 l/m 0 min 2 min 0 W/m 12,9 km/h (3 Bft) 97,87 %
08.03.2020 22:38 7,4 C 6,1 C 5,6 C 97 % 1009,2 hPa 0,0 l/m 0 min 2 min 0 W/m 0,0 km/h (0 Bft) 97,87 %
08.03.2020 22:40 7,4 C 6,1 C 5,6 C 97 % 1009,2 hPa 0,0 l/m 0 min 2 min 0 W/m 6,4 km/h (2 Bft) 97,83 %
08.03.2020 22:42 7,4 C 6,1 C 5,6 C 97 % 1009,2 hPa 0,0 l/m 0 min 2 min 0 W/m 6,4 km/h (2 Bft) 97,87 %
08.03.2020 22:44 7,4 C 6,1 C 5,6 C 97 % 1009,3 hPa 0,0 l/m 0 min 2 min 0 W/m 6,4 km/h (2 Bft) 97,87 %
08.03.2020 22:46 7,4 C 6,1 C 5,6 C 97 % 1009,3 hPa 0,0 l/m 0 min 0 min 0 W/m 6,4 km/h (2 Bft) 97,87 %
08.03.2020 22:48 7,4 C 6,1 C 5,6 C 97 % 1009,3 hPa 0,0 l/m 0 min 2 min 0 W/m 6,4 km/h (2 Bft) 97,87 %
08.03.2020 22:50 7,4 C 6,1 C 5,6 C 97 % 1009,3 hPa 0,0 l/m 0 min 2 min 0 W/m 9,7 km/h (2 Bft) 97,87 %
08.03.2020 22:52 7,4 C 6,1 C 6,1 C 97 % 1009,3 hPa 0,0 l/m 0 min 0 min 0 W/m 12,9 km/h (3 Bft) 97,83 %
08.03.2020 22:54 7,3 C 6,1 C 6,1 C 97 % 1009,4 hPa 0,0 l/m 0 min 2 min 0 W/m 12,9 km/h (3 Bft) 97,87 %
08.03.2020 22:56 7,4 C 6,7 C 6,1 C 97 % 1009,4 hPa 0,0 l/m 0 min 0 min 0 W/m 16,1 km/h (3 Bft) 97,87 %
08.03.2020 22:58 7,3 C 6,7 C 6,1 C 97 % 1009,4 hPa 0,0 l/m 0 min 0 min 0 W/m 19,3 km/h (3 Bft) 97,87 %
08.03.2020 23:00 7,3 C 6,7 C 6,1 C 97 % 1009,4 hPa 0,0 l/m 0 min 2 min 0 W/m 6,4 km/h (2 Bft) 100,00 %
08.03.2020 23:02 7,3 C 6,7 C 6,1 C 97 % 1009,4 hPa 0,0 l/m 0 min 2 min 0 W/m 12,9 km/h (3 Bft) 100,00 %
08.03.2020 23:04 7,3 C 6,7 C 6,1 C 97 % 1009,4 hPa 0,0 l/m 0 min 0 min 0 W/m 12,9 km/h (3 Bft) 100,00 %
08.03.2020 23:06 7,3 C 6,7 C 5,6 C 97 % 1009,5 hPa 0,0 l/m 0 min 0 min 0 W/m 19,3 km/h (3 Bft) 97,87 %
08.03.2020 23:08 7,3 C 6,7 C 5,6 C 97 % 1009,4 hPa 0,0 l/m 0 min 2 min 0 W/m 6,4 km/h (2 Bft) 100,00 %
08.03.2020 23:10 7,3 C 6,7 C 5,6 C 97 % 1009,4 hPa 0,0 l/m 0 min 2 min 0 W/m 22,5 km/h (4 Bft) 100,00 %
08.03.2020 23:12 7,3 C 6,1 C 5,6 C 97 % 1009,4 hPa 0,0 l/m 0 min 0 min 0 W/m 16,1 km/h (3 Bft) 95,74 %
08.03.2020 23:14 7,3 C 6,1 C 5,6 C 97 % 1009,4 hPa 0,0 l/m 0 min 0 min 0 W/m 12,9 km/h (3 Bft) 100,00 %
08.03.2020 23:16 7,3 C 6,1 C 5,6 C 97 % 1009,4 hPa 0,0 l/m 0 min 0 min 0 W/m 9,7 km/h (2 Bft) 95,74 %
08.03.2020 23:18 7,3 C 6,1 C 5,6 C 97 % 1009,4 hPa 0,0 l/m 0 min 2 min 0 W/m 19,3 km/h (3 Bft) 97,87 %
08.03.2020 23:20 7,3 C 6,1 C 5,6 C 97 % 1009,3 hPa 0,0 l/m 0 min 0 min 0 W/m 22,5 km/h (4 Bft) 100,00 %
08.03.2020 23:22 7,3 C 6,1 C 5,6 C 97 % 1009,4 hPa 0,0 l/m 0 min 0 min 0 W/m 22,5 km/h (4 Bft) 97,87 %
08.03.2020 23:24 7,3 C 6,1 C 5,6 C 97 % 1009,4 hPa 0,0 l/m 0 min 0 min 0 W/m 16,1 km/h (3 Bft) 97,87 %
08.03.2020 23:26 7,2 C 6,1 C 5,6 C 97 % 1009,3 hPa 0,0 l/m 0 min 0 min 0 W/m 19,3 km/h (3 Bft) 100,00 %
08.03.2020 23:28 7,2 C 6,1 C 5,6 C 97 % 1009,3 hPa 0,0 l/m 0 min 0 min 0 W/m 6,4 km/h (2 Bft) 97,87 %
08.03.2020 23:30 7,2 C 6,1 C 5,6 C 97 % 1009,4 hPa 0,0 l/m 0 min 0 min 0 W/m 16,1 km/h (3 Bft) 100,00 %
08.03.2020 23:32 7,2 C 6,1 C 5,6 C 97 % 1009,3 hPa 0,0 l/m 0 min 0 min 0 W/m 12,9 km/h (3 Bft) 97,92 %
08.03.2020 23:34 7,2 C 6,1 C 5,6 C 97 % 1009,3 hPa 0,0 l/m 0 min 0 min 0 W/m 0,0 km/h (0 Bft) 100,00 %
08.03.2020 23:36 7,2 C 6,1 C 5,6 C 97 % 1009,2 hPa 0,0 l/m 0 min 0 min 0 W/m 0,0 km/h (0 Bft) 97,87 %
08.03.2020 23:38 7,2 C 6,1 C 5,6 C 97 % 1009,3 hPa 0,0 l/m 0 min 0 min 0 W/m 0,0 km/h (0 Bft) 97,87 %
08.03.2020 23:40 7,2 C 6,1 C 5,6 C 97 % 1009,4 hPa 0,0 l/m 0 min 0 min 0 W/m 3,2 km/h (1 Bft) 97,87 %
08.03.2020 23:42 7,1 C 6,1 C 5,6 C 97 % 1009,3 hPa 0,0 l/m 0 min 2 min 0 W/m 6,4 km/h (2 Bft) 97,87 %
08.03.2020 23:44 7,1 C 6,1 C 5,6 C 97 % 1009,4 hPa 0,0 l/m 0 min 2 min 0 W/m 12,9 km/h (3 Bft) 95,83 %
08.03.2020 23:46 7,1 C 6,1 C 5,6 C 97 % 1009,4 hPa 0,0 l/m 0 min 0 min 0 W/m 12,9 km/h (3 Bft) 95,74 %
08.03.2020 23:48 7,1 C 6,1 C 5,6 C 97 % 1009,4 hPa 0,0 l/m 0 min 0 min 0 W/m 16,1 km/h (3 Bft) 95,74 %
08.03.2020 23:50 7,1 C 6,1 C 5,6 C 97 % 1009,3 hPa 0,0 l/m 0 min 0 min 0 W/m 22,5 km/h (4 Bft) 97,87 %
08.03.2020 23:52 7,1 C 6,1 C 5,6 C 96 % 1009,3 hPa 0,0 l/m 0 min 0 min 0 W/m 16,1 km/h (3 Bft) 97,83 %
08.03.2020 23:54 7,1 C 6,1 C 5,6 C 96 % 1009,4 hPa 0,0 l/m 0 min 0 min 0 W/m 3,2 km/h (1 Bft) 97,87 %
08.03.2020 23:56 7,1 C 6,1 C 5,6 C 96 % 1009,4 hPa 0,0 l/m 0 min 0 min 0 W/m 12,9 km/h (3 Bft) 97,87 %
08.03.2020 23:58 7,1 C 6,1 C 5,6 C 96 % 1009,4 hPa 0,0 l/m 0 min 0 min 0 W/m 12,9 km/h (3 Bft) 97,87 %
_ Min-Zeit 07:56 06:12 03:34 11:06 21:08 - - - - 01:04 13:38
Minimum _ 6,8 C 6,1 C 5,6 C 68 % 1008,4 hPa - - - - 0,0 km/h (0 Bft) 54,35 %
_ Max-Zeit 11:14 11:12 11:14 21:32 00:00 14:24 09:06 13:38 11:10 13:08 00:02
Maximum _ 12,4 C 16,1 C 12,2 C 97 % 1018,6 hPa 0,2 l/m 2 min 2 min 718 W/m 51,5 km/h
S (7 Bft)
100,00 %
Durchschnitt _ 8,8 C 8,0 C 7,3 C 87 % 1012,9 hPa #3,2 l/m #2:00 h #6:36 h 134 W/m 19,9 km/h (4 Bft) 97,36 %
© 2020 W. Hausmann